Wetterdaten: Dienstag, 23.03.2010
Datum Zeit Temp. Innen Temp. Aussen UV X Diff Temp. Feuchte Inne Feuchte Auss Sonnenschein Luftdruck Regen ab 0,1 Wind Sonnenschein Windben
23.03.2010 00:00 15,9 C 8,5 C 0,0 UV-I 0,0 C 54 % 81 % 0 % 1019,6 hPa 0,0 l/m 0,4 km/h (0 Bft) 0 min 0,0 km/h (0 Bft)
23.03.2010 00:02 15,9 C 8,5 C 0,0 UV-I 0,0 C 54 % 81 % 0 % 1019,6 hPa 0,0 l/m 0,0 km/h (0 Bft) 0 min 0,0 km/h (0 Bft)
23.03.2010 00:04 16,0 C 8,5 C 0,0 UV-I 0,0 C 54 % 81 % 0 % 1019,6 hPa 0,0 l/m 0,0 km/h (0 Bft) 0 min 0,0 km/h (0 Bft)
23.03.2010 00:06 15,9 C 8,5 C 0,0 UV-I 0,0 C 54 % 81 % 0 % 1019,6 hPa 0,0 l/m 0,0 km/h (0 Bft) 0 min 0,0 km/h (0 Bft)
23.03.2010 00:08 16,0 C 8,5 C 0,0 UV-I 0,0 C 54 % 81 % 0 % 1019,6 hPa 0,0 l/m 0,0 km/h (0 Bft) 0 min 0,0 km/h (0 Bft)
23.03.2010 00:10 16,0 C 8,5 C 0,0 UV-I 0,0 C 54 % 81 % 0 % 1019,6 hPa 0,0 l/m 0,0 km/h (0 Bft) 0 min 0,0 km/h (0 Bft)
23.03.2010 00:12 15,9 C 8,5 C 0,0 UV-I 0,0 C 54 % 81 % 0 % 1019,4 hPa 0,0 l/m 0,0 km/h (0 Bft) 0 min 0,0 km/h (0 Bft)
23.03.2010 00:14 15,9 C 8,4 C 0,0 UV-I 0,0 C 54 % 81 % 0 % 1019,4 hPa 0,0 l/m 0,8 km/h (0 Bft) 0 min 0,0 km/h (0 Bft)
23.03.2010 00:16 15,9 C 8,4 C 0,0 UV-I 0,0 C 54 % 81 % 0 % 1019,4 hPa 0,0 l/m 0,8 km/h (0 Bft) 0 min 2,6 km/h (1 Bft)
23.03.2010 00:18 16,0 C 8,4 C 0,0 UV-I 0,0 C 54 % 81 % 0 % 1019,4 hPa 0,0 l/m 0,8 km/h (0 Bft) 0 min 0,0 km/h (0 Bft)
23.03.2010 00:20 16,0 C 8,4 C 0,0 UV-I 0,0 C 54 % 81 % 0 % 1019,4 hPa 0,0 l/m 0,0 km/h (0 Bft) 0 min 0,0 km/h (0 Bft)
23.03.2010 00:22 15,9 C 8,4 C 0,0 UV-I 0,0 C 54 % 81 % 0 % 1019,4 hPa 0,0 l/m 0,4 km/h (0 Bft) 0 min 5,1 km/h (1 Bft)
23.03.2010 00:24 15,9 C 8,4 C 0,0 UV-I 0,1 C 54 % 82 % 0 % 1019,4 hPa 0,0 l/m 0,8 km/h (0 Bft) 0 min 3,4 km/h (1 Bft)
23.03.2010 00:26 15,9 C 8,4 C 0,0 UV-I 0,1 C 54 % 82 % 0 % 1019,4 hPa 0,0 l/m 1,2 km/h (1 Bft) 0 min 3,1 km/h (1 Bft)
23.03.2010 00:28 16,0 C 8,4 C 0,0 UV-I 0,1 C 54 % 82 % 0 % 1019,4 hPa 0,0 l/m 1,6 km/h (1 Bft) 0 min 0,0 km/h (0 Bft)
23.03.2010 00:30 15,9 C 8,4 C 0,0 UV-I 0,1 C 54 % 82 % 0 % 1019,4 hPa 0,0 l/m 1,6 km/h (1 Bft) 0 min 5,1 km/h (1 Bft)
23.03.2010 00:32 16,0 C 8,4 C 0,0 UV-I 0,2 C 55 % 82 % 0 % 1019,4 hPa 0,0 l/m 1,6 km/h (1 Bft) 0 min 0,0 km/h (0 Bft)
23.03.2010 00:34 15,9 C 8,4 C 0,0 UV-I 0,2 C 54 % 82 % 0 % 1019,4 hPa 0,0 l/m 1,6 km/h (1 Bft) 0 min 0,0 km/h (0 Bft)
23.03.2010 00:36 15,9 C 8,4 C 0,0 UV-I 0,1 C 55 % 82 % 0 % 1019,4 hPa 0,0 l/m 1,2 km/h (1 Bft) 0 min 2,6 km/h (1 Bft)
23.03.2010 00:38 15,9 C 8,4 C 0,0 UV-I 0,1 C 55 % 82 % 0 % 1019,4 hPa 0,0 l/m 1,6 km/h (1 Bft) 0 min 7,5 km/h (2 Bft)
23.03.2010 00:40 15,9 C 8,4 C 0,0 UV-I 0,1 C 55 % 82 % 0 % 1019,4 hPa 0,0 l/m 2,4 km/h (1 Bft) 0 min 7,5 km/h (2 Bft)
23.03.2010 00:42 15,9 C 8,4 C 0,0 UV-I 0,1 C 55 % 83 % 0 % 1019,4 hPa 0,0 l/m 2,8 km/h (1 Bft) 0 min 4,3 km/h (1 Bft)
23.03.2010 00:44 15,9 C 8,4 C 0,0 UV-I 0,1 C 55 % 83 % 0 % 1019,4 hPa 0,0 l/m 3,6 km/h (1 Bft) 0 min 3,6 km/h (1 Bft)
23.03.2010 00:46 16,0 C 8,4 C 0,0 UV-I 0,1 C 55 % 83 % 0 % 1019,4 hPa 0,0 l/m 4,8 km/h (1 Bft) 0 min 5,1 km/h (1 Bft)
23.03.2010 00:48 16,0 C 8,4 C 0,0 UV-I 0,0 C 55 % 83 % 0 % 1019,4 hPa 0,0 l/m 5,6 km/h (1 Bft) 0 min 0,0 km/h (0 Bft)
23.03.2010 00:50 16,0 C 8,4 C 0,0 UV-I 0,0 C 55 % 83 % 0 % 1019,4 hPa 0,0 l/m 5,2 km/h (1 Bft) 0 min 2,4 km/h (1 Bft)
23.03.2010 00:52 16,0 C 8,4 C 0,0 UV-I 0,0 C 55 % 83 % 0 % 1019,3 hPa 0,0 l/m 5,2 km/h (1 Bft) 0 min 3,4 km/h (1 Bft)
23.03.2010 00:54 16,0 C 8,5 C 0,0 UV-I 0,0 C 55 % 83 % 0 % 1019,3 hPa 0,0 l/m 5,6 km/h (1 Bft) 0 min 9,1 km/h (2 Bft)
23.03.2010 00:56 16,0 C 8,4 C 0,0 UV-I 0,0 C 55 % 83 % 0 % 1019,3 hPa 0,0 l/m 4,8 km/h (1 Bft) 0 min 0,0 km/h (0 Bft)
23.03.2010 00:58 16,0 C 8,4 C 0,0 UV-I 0,0 C 55 % 82 % 0 % 1019,3 hPa 0,0 l/m 3,2 km/h (1 Bft) 0 min 3,4 km/h (1 Bft)
23.03.2010 01:00 16,0 C 8,3 C 0,0 UV-I 0,0 C 55 % 82 % 0 % 1019,3 hPa 0,0 l/m 3,2 km/h (1 Bft) 0 min 9,1 km/h (2 Bft)
23.03.2010 01:02 16,0 C 8,3 C 0,0 UV-I 0,0 C 55 % 83 % 0 % 1019,3 hPa 0,0 l/m 2,8 km/h (1 Bft) 0 min 3,6 km/h (1 Bft)
23.03.2010 01:04 16,0 C 8,3 C 0,0 UV-I 0,0 C 55 % 83 % 0 % 1019,3 hPa 0,0 l/m 2,4 km/h (1 Bft) 0 min 3,4 km/h (1 Bft)
23.03.2010 01:06 16,0 C 8,3 C 0,0 UV-I 0,0 C 55 % 82 % 0 % 1019,3 hPa 0,0 l/m 2,0 km/h (1 Bft) 0 min 2,6 km/h (1 Bft)
23.03.2010 01:08 16,0 C 8,3 C 0,0 UV-I 0,0 C 55 % 83 % 0 % 1019,3 hPa 0,0 l/m 3,2 km/h (1 Bft) 0 min 2,4 km/h (1 Bft)
23.03.2010 01:10 16,0 C 8,3 C 0,0 UV-I 0,0 C 55 % 83 % 0 % 1019,3 hPa 0,0 l/m 2,8 km/h (1 Bft) 0 min 0,0 km/h (0 Bft)
23.03.2010 01:12 16,0 C 8,2 C 0,0 UV-I 0,0 C 55 % 83 % 0 % 1019,1 hPa 0,0 l/m 2,8 km/h (1 Bft) 0 min 3,1 km/h (1 Bft)
23.03.2010 01:14 16,0 C 8,1 C 0,0 UV-I 0,0 C 55 % 83 % 0 % 1019,1 hPa 0,0 l/m 3,6 km/h (1 Bft) 0 min 11,8 km/h (2 Bft)
23.03.2010 01:16 16,0 C 8,1 C 0,0 UV-I 0,0 C 55 % 83 % 0 % 1019,1 hPa 0,0 l/m 3,6 km/h (1 Bft) 0 min 2,4 km/h (1 Bft)
23.03.2010 01:18 16,0 C 8,1 C 0,0 UV-I 0,0 C 55 % 83 % 0 % 1019,1 hPa 0,0 l/m 3,2 km/h (1 Bft) 0 min 0,0 km/h (0 Bft)
23.03.2010 01:20 15,8 C 8,0 C 0,0 UV-I 0,0 C 55 % 83 % 0 % 1019,1 hPa 0,0 l/m 3,2 km/h (1 Bft) 0 min 11,8 km/h (2 Bft)
23.03.2010 01:22 16,0 C 8,0 C 0,0 UV-I 0,0 C 55 % 83 % 0 % 1019,1 hPa 0,0 l/m 3,2 km/h (1 Bft) 0 min 3,6 km/h (1 Bft)
23.03.2010 01:24 15,8 C 8,0 C 0,0 UV-I 0,0 C 55 % 83 % 0 % 1019,1 hPa 0,0 l/m 2,8 km/h (1 Bft) 0 min 0,0 km/h (0 Bft)
23.03.2010 01:26 15,8 C 8,0 C 0,0 UV-I 0,0 C 55 % 83 % 0 % 1019,1 hPa 0,0 l/m 2,4 km/h (1 Bft) 0 min 6,0 km/h (2 Bft)
23.03.2010 01:28 15,8 C 8,0 C 0,0 UV-I 0,0 C 55 % 83 % 0 % 1019,1 hPa 0,0 l/m 2,4 km/h (1 Bft) 0 min 0,0 km/h (0 Bft)
23.03.2010 01:30 15,8 C 8,0 C 0,0 UV-I 0,0 C 55 % 83 % 0 % 1019,1 hPa 0,0 l/m 2,8 km/h (1 Bft) 0 min 0,0 km/h (0 Bft)
23.03.2010 01:32 15,8 C 7,9 C 0,0 UV-I 0,0 C 55 % 83 % 0 % 1019,2 hPa 0,0 l/m 2,8 km/h (1 Bft) 0 min 3,6 km/h (1 Bft)
23.03.2010 01:34 15,8 C 7,9 C 0,0 UV-I 0,0 C 55 % 83 % 0 % 1019,2 hPa 0,0 l/m 2,4 km/h (1 Bft) 0 min 0,0 km/h (0 Bft)
23.03.2010 01:36 15,9 C 7,9 C 0,0 UV-I 0,0 C 55 % 83 % 0 % 1019,2 hPa 0,0 l/m 2,0 km/h (1 Bft) 0 min 0,0 km/h (0 Bft)
23.03.2010 01:38 15,9 C 7,8 C 0,0 UV-I 0,0 C 55 % 83 % 0 % 1019,2 hPa 0,0 l/m 1,2 km/h (1 Bft) 0 min 0,0 km/h (0 Bft)
23.03.2010 01:40 15,9 C 7,9 C 0,0 UV-I 0,0 C 55 % 83 % 0 % 1019,2 hPa 0,0 l/m 0,4 km/h (0 Bft) 0 min 0,0 km/h (0 Bft)
23.03.2010 01:42 15,9 C 7,9 C 0,0 UV-I 0,0 C 55 % 83 % 0 % 1019,2 hPa 0,0 l/m 0,4 km/h (0 Bft) 0 min 0,0 km/h (0 Bft)
23.03.2010 01:44 15,9 C 7,9 C 0,0 UV-I 0,0 C 55 % 83 % 0 % 1019,2 hPa 0,0 l/m 0,0 km/h (0 Bft) 0 min 0,0 km/h (0 Bft)
23.03.2010 01:46 15,9 C 7,8 C 0,0 UV-I 0,0 C 55 % 83 % 0 % 1019,2 hPa 0,0 l/m 0,0 km/h (0 Bft) 0 min 0,0 km/h (0 Bft)
23.03.2010 01:48 15,9 C 7,7 C 0,0 UV-I 0,0 C 55 % 83 % 0 % 1019,2 hPa 0,0 l/m 0,0 km/h (0 Bft) 0 min 0,0 km/h (0 Bft)
23.03.2010 01:50 15,9 C 7,7 C 0,0 UV-I 0,0 C 55 % 83 % 0 % 1019,2 hPa 0,0 l/m 0,4 km/h (0 Bft) 0 min 0,0 km/h (0 Bft)
23.03.2010 01:52 15,9 C 7,6 C 0,0 UV-I 0,0 C 55 % 83 % 0 % 1019,4 hPa 0,0 l/m 0,8 km/h (0 Bft) 0 min 0,0 km/h (0 Bft)
23.03.2010 01:54 15,8 C 7,7 C 0,0 UV-I 0,0 C 55 % 83 % 0 % 1019,4 hPa 0,0 l/m 0,8 km/h (0 Bft) 0 min 0,0 km/h (0 Bft)
23.03.2010 01:56 15,8 C 7,6 C 0,0 UV-I 0,0 C 55 % 83 % 0 % 1019,4 hPa 0,0 l/m 1,2 km/h (1 Bft) 0 min 2,6 km/h (1 Bft)
23.03.2010 01:58 15,8 C 7,5 C 0,0 UV-I 0,0 C 55 % 84 % 0 % 1019,4 hPa 0,0 l/m 1,2 km/h (1 Bft) 0 min 2,4 km/h (1 Bft)
23.03.2010 02:02 15,8 C 7,4 C 0,0 UV-I 0,0 C 55 % 84 % 0 % 1019,4 hPa 0,0 l/m 1,2 km/h (1 Bft) 0 min 2,6 km/h (1 Bft)
23.03.2010 02:04 15,8 C 7,5 C 0,0 UV-I 0,0 C 55 % 84 % 0 % 1019,4 hPa 0,0 l/m 1,2 km/h (1 Bft) 0 min 0,0 km/h (0 Bft)
23.03.2010 02:06 15,8 C 7,5 C 0,0 UV-I 0,0 C 55 % 84 % 0 % 1019,4 hPa 0,0 l/m 1,2 km/h (1 Bft) 0 min 0,0 km/h (0 Bft)
23.03.2010 02:08 15,8 C 7,5 C 0,0 UV-I 0,0 C 55 % 84 % 0 % 1019,4 hPa 0,0 l/m 0,8 km/h (0 Bft) 0 min 0,0 km/h (0 Bft)
23.03.2010 02:10 15,8 C 7,4 C 0,0 UV-I 0,0 C 55 % 84 % 0 % 1019,4 hPa 0,0 l/m 0,4 km/h (0 Bft) 0 min 0,0 km/h (0 Bft)
23.03.2010 02:12 15,8 C 7,3 C 0,0 UV-I 0,0 C 55 % 84 % 0 % 1018,9 hPa 0,0 l/m 0,4 km/h (0 Bft) 0 min 0,0 km/h (0 Bft)
23.03.2010 02:14 15,8 C 7,3 C 0,0 UV-I 0,0 C 55 % 84 % 0 % 1018,9 hPa 0,0 l/m 0,0 km/h (0 Bft) 0 min 0,0 km/h (0 Bft)
23.03.2010 02:16 15,8 C 7,3 C 0,0 UV-I 0,0 C 55 % 85 % 0 % 1018,9 hPa 0,0 l/m 0,0 km/h (0 Bft) 0 min 0,0 km/h (0 Bft)
23.03.2010 02:18 15,8 C 7,3 C 0,0 UV-I 0,0 C 55 % 85 % 0 % 1018,9 hPa 0,0 l/m 0,4 km/h (0 Bft) 0 min 0,0 km/h (0 Bft)
23.03.2010 02:20 15,8 C 7,3 C 0,0 UV-I 0,0 C 55 % 85 % 0 % 1018,9 hPa 0,0 l/m 0,4 km/h (0 Bft) 0 min 0,0 km/h (0 Bft)
23.03.2010 02:22 15,8 C 7,2 C 0,0 UV-I 0,0 C 55 % 85 % 0 % 1018,9 hPa 0,0 l/m 0,8 km/h (0 Bft) 0 min 2,4 km/h (1 Bft)
23.03.2010 02:24 15,8 C 7,2 C 0,0 UV-I 0,0 C 55 % 85 % 0 % 1018,9 hPa 0,0 l/m 1,2 km/h (1 Bft) 0 min 3,1 km/h (1 Bft)
23.03.2010 02:26 15,8 C 7,3 C 0,0 UV-I 0,0 C 55 % 85 % 0 % 1018,9 hPa 0,0 l/m 1,2 km/h (1 Bft) 0 min 4,1 km/h (1 Bft)
23.03.2010 02:28 15,8 C 7,2 C 0,0 UV-I 0,0 C 55 % 85 % 0 % 1018,9 hPa 0,0 l/m 2,0 km/h (1 Bft) 0 min 2,9 km/h (1 Bft)
23.03.2010 02:30 15,8 C 7,3 C 0,0 UV-I 0,0 C 55 % 85 % 0 % 1018,9 hPa 0,0 l/m 1,6 km/h (1 Bft) 0 min 0,0 km/h (0 Bft)
23.03.2010 02:32 15,8 C 7,2 C 0,0 UV-I 0,0 C 55 % 86 % 0 % 1018,9 hPa 0,0 l/m 1,6 km/h (1 Bft) 0 min 2,4 km/h (1 Bft)
23.03.2010 02:34 15,8 C 7,2 C 0,0 UV-I 0,0 C 55 % 86 % 0 % 1018,9 hPa 0,0 l/m 1,6 km/h (1 Bft) 0 min 3,4 km/h (1 Bft)
23.03.2010 02:36 15,8 C 7,2 C 0,0 UV-I 0,0 C 55 % 86 % 0 % 1018,9 hPa 0,0 l/m 2,4 km/h (1 Bft) 0 min 3,1 km/h (1 Bft)
23.03.2010 02:38 15,8 C 7,2 C 0,0 UV-I 0,0 C 55 % 86 % 0 % 1018,9 hPa 0,0 l/m 2,0 km/h (1 Bft) 0 min 0,0 km/h (0 Bft)
23.03.2010 02:40 15,8 C 7,2 C 0,0 UV-I 0,0 C 55 % 86 % 0 % 1018,9 hPa 0,0 l/m 2,4 km/h (1 Bft) 0 min 5,3 km/h (1 Bft)
23.03.2010 02:42 15,8 C 7,2 C 0,0 UV-I 0,0 C 55 % 86 % 0 % 1018,9 hPa 0,0 l/m 3,2 km/h (1 Bft) 0 min 3,8 km/h (1 Bft)
23.03.2010 02:44 15,8 C 7,2 C 0,0 UV-I 0,0 C 55 % 86 % 0 % 1018,9 hPa 0,0 l/m 3,6 km/h (1 Bft) 0 min 2,4 km/h (1 Bft)
23.03.2010 02:46 15,8 C 7,2 C 0,0 UV-I 0,0 C 55 % 86 % 0 % 1018,9 hPa 0,0 l/m 3,6 km/h (1 Bft) 0 min 2,6 km/h (1 Bft)
23.03.2010 02:48 15,6 C 7,2 C 0,0 UV-I 0,0 C 55 % 86 % 0 % 1018,9 hPa 0,0 l/m 3,6 km/h (1 Bft) 0 min 0,0 km/h (0 Bft)
23.03.2010 02:50 15,8 C 7,2 C 0,0 UV-I 0,0 C 55 % 86 % 0 % 1018,9 hPa 0,0 l/m 3,6 km/h (1 Bft) 0 min 2,4 km/h (1 Bft)
23.03.2010 02:52 15,8 C 7,2 C 0,0 UV-I 0,0 C 55 % 86 % 0 % 1018,7 hPa 0,0 l/m 3,2 km/h (1 Bft) 0 min 3,8 km/h (1 Bft)
23.03.2010 02:54 15,6 C 7,2 C 0,0 UV-I 0,0 C 55 % 86 % 0 % 1018,7 hPa 0,0 l/m 2,4 km/h (1 Bft) 0 min 0,0 km/h (0 Bft)
23.03.2010 02:56 15,8 C 7,3 C 0,0 UV-I 0,0 C 55 % 86 % 0 % 1018,7 hPa 0,0 l/m 2,4 km/h (1 Bft) 0 min 7,2 km/h (2 Bft)
23.03.2010 02:58 15,8 C 7,3 C 0,0 UV-I 0,0 C 55 % 86 % 0 % 1018,7 hPa 0,0 l/m 2,4 km/h (1 Bft) 0 min 0,0 km/h (0 Bft)
23.03.2010 03:00 15,8 C 7,2 C 0,0 UV-I 0,0 C 55 % 86 % 0 % 1018,7 hPa 0,0 l/m 2,0 km/h (1 Bft) 0 min 0,0 km/h (0 Bft)
23.03.2010 03:02 15,6 C 7,3 C 0,0 UV-I 0,0 C 55 % 86 % 0 % 1018,7 hPa 0,0 l/m 2,0 km/h (1 Bft) 0 min 0,0 km/h (0 Bft)
23.03.2010 03:04 15,8 C 7,2 C 0,0 UV-I 0,0 C 55 % 86 % 0 % 1018,7 hPa 0,0 l/m 2,0 km/h (1 Bft) 0 min 0,0 km/h (0 Bft)
23.03.2010 03:06 15,8 C 7,2 C 0,0 UV-I 0,0 C 55 % 86 % 0 % 1018,7 hPa 0,0 l/m 1,6 km/h (1 Bft) 0 min 2,6 km/h (1 Bft)
23.03.2010 03:08 15,8 C 7,3 C 0,0 UV-I 0,0 C 55 % 86 % 0 % 1018,7 hPa 0,0 l/m 0,8 km/h (0 Bft) 0 min 0,0 km/h (0 Bft)
23.03.2010 03:10 15,8 C 7,3 C 0,0 UV-I 0,0 C 55 % 86 % 0 % 1018,7 hPa 0,0 l/m 1,2 km/h (1 Bft) 0 min 5,8 km/h (2 Bft)
23.03.2010 03:12 15,6 C 7,3 C 0,0 UV-I 0,0 C 55 % 86 % 0 % 1018,7 hPa 0,0 l/m 1,2 km/h (1 Bft) 0 min 0,0 km/h (0 Bft)
23.03.2010 03:14 15,8 C 7,5 C 0,0 UV-I 0,0 C 55 % 86 % 0 % 1018,7 hPa 0,0 l/m 1,6 km/h (1 Bft) 0 min 0,0 km/h (0 Bft)
23.03.2010 03:16 15,6 C 7,5 C 0,0 UV-I 0,0 C 55 % 86 % 0 % 1018,7 hPa 0,0 l/m 2,0 km/h (1 Bft) 0 min 10,6 km/h (2 Bft)
23.03.2010 03:18 15,6 C 7,5 C 0,0 UV-I 0,0 C 55 % 86 % 0 % 1018,7 hPa 0,0 l/m 2,8 km/h (1 Bft) 0 min 0,0 km/h (0 Bft)
23.03.2010 03:20 15,6 C 7,5 C 0,0 UV-I 0,1 C 55 % 86 % 0 % 1018,7 hPa 0,0 l/m 3,2 km/h (1 Bft) 0 min 5,1 km/h (1 Bft)
23.03.2010 03:22 15,6 C 7,6 C 0,0 UV-I 0,0 C 55 % 86 % 0 % 1018,7 hPa 0,0 l/m 3,2 km/h (1 Bft) 0 min 0,0 km/h (0 Bft)
23.03.2010 03:24 15,8 C 7,6 C 0,0 UV-I 0,1 C 55 % 86 % 0 % 1018,7 hPa 0,0 l/m 2,8 km/h (1 Bft) 0 min 0,0 km/h (0 Bft)
23.03.2010 03:26 15,6 C 7,6 C 0,0 UV-I 0,2 C 55 % 86 % 0 % 1018,7 hPa 0,0 l/m 3,2 km/h (1 Bft) 0 min 3,6 km/h (1 Bft)
23.03.2010 03:28 15,6 C 7,7 C 0,0 UV-I 0,1 C 55 % 86 % 0 % 1018,7 hPa 0,0 l/m 2,0 km/h (1 Bft) 0 min 3,8 km/h (1 Bft)
23.03.2010 03:30 15,6 C 7,7 C 0,0 UV-I 0,1 C 55 % 86 % 0 % 1018,7 hPa 0,0 l/m 2,4 km/h (1 Bft) 0 min 0,0 km/h (0 Bft)
23.03.2010 03:32 15,6 C 7,7 C 0,0 UV-I 0,1 C 55 % 86 % 0 % 1019,0 hPa 0,0 l/m 2,4 km/h (1 Bft) 0 min 3,4 km/h (1 Bft)
23.03.2010 03:34 15,6 C 7,7 C 0,0 UV-I 0,2 C 55 % 86 % 0 % 1019,0 hPa 0,0 l/m 2,4 km/h (1 Bft) 0 min 0,0 km/h (0 Bft)
23.03.2010 03:36 15,6 C 7,7 C 0,0 UV-I 0,2 C 55 % 85 % 0 % 1019,0 hPa 0,0 l/m 2,8 km/h (1 Bft) 0 min 3,4 km/h (1 Bft)
23.03.2010 03:38 15,6 C 7,7 C 0,0 UV-I 0,2 C 55 % 85 % 0 % 1019,0 hPa 0,0 l/m 2,8 km/h (1 Bft) 0 min 2,4 km/h (1 Bft)
23.03.2010 03:40 15,6 C 7,8 C 0,0 UV-I 0,2 C 55 % 85 % 0 % 1019,0 hPa 0,0 l/m 2,4 km/h (1 Bft) 0 min 0,0 km/h (0 Bft)
23.03.2010 03:42 15,6 C 7,9 C 0,0 UV-I 0,1 C 55 % 85 % 0 % 1019,0 hPa 0,0 l/m 2,8 km/h (1 Bft) 0 min 5,1 km/h (1 Bft)
23.03.2010 03:44 15,7 C 7,9 C 0,0 UV-I 0,1 C 55 % 85 % 0 % 1019,0 hPa 0,0 l/m 2,8 km/h (1 Bft) 0 min 2,4 km/h (1 Bft)
23.03.2010 03:46 15,6 C 7,9 C 0,0 UV-I 0,1 C 55 % 85 % 0 % 1019,0 hPa 0,0 l/m 2,4 km/h (1 Bft) 0 min 0,0 km/h (0 Bft)
23.03.2010 03:48 15,7 C 7,9 C 0,0 UV-I 0,1 C 55 % 85 % 0 % 1019,0 hPa 0,0 l/m 2,0 km/h (1 Bft) 0 min 0,0 km/h (0 Bft)
23.03.2010 03:50 15,6 C 7,8 C 0,0 UV-I 0,2 C 55 % 85 % 0 % 1019,0 hPa 0,0 l/m 2,0 km/h (1 Bft) 0 min 3,1 km/h (1 Bft)
23.03.2010 03:52 15,7 C 7,8 C 0,0 UV-I 0,2 C 55 % 85 % 0 % 1019,1 hPa 0,0 l/m 1,2 km/h (1 Bft) 0 min 0,0 km/h (0 Bft)
23.03.2010 03:54 15,7 C 7,9 C 0,0 UV-I 0,1 C 55 % 85 % 0 % 1019,1 hPa 0,0 l/m 0,8 km/h (0 Bft) 0 min 0,0 km/h (0 Bft)
23.03.2010 03:56 15,6 C 7,8 C 0,0 UV-I 0,1 C 55 % 85 % 0 % 1019,1 hPa 0,0 l/m 0,8 km/h (0 Bft) 0 min 0,0 km/h (0 Bft)
23.03.2010 03:58 15,6 C 7,9 C 0,0 UV-I 0,0 C 55 % 85 % 0 % 1019,1 hPa 0,0 l/m 0,8 km/h (0 Bft) 0 min 5,3 km/h (1 Bft)
23.03.2010 04:00 15,7 C 7,9 C 0,0 UV-I 0,0 C 55 % 85 % 0 % 1019,1 hPa 0,0 l/m 0,8 km/h (0 Bft) 0 min 3,4 km/h (1 Bft)
23.03.2010 04:02 15,6 C 7,9 C 0,0 UV-I 0,0 C 55 % 85 % 0 % 1019,1 hPa 0,0 l/m 0,8 km/h (0 Bft) 0 min 2,9 km/h (1 Bft)
23.03.2010 04:04 15,7 C 7,9 C 0,0 UV-I 0,0 C 55 % 85 % 0 % 1019,1 hPa 0,0 l/m 0,8 km/h (0 Bft) 0 min 0,0 km/h (0 Bft)
23.03.2010 04:06 15,7 C 7,9 C 0,0 UV-I 0,0 C 55 % 85 % 0 % 1019,1 hPa 0,0 l/m 1,2 km/h (1 Bft) 0 min 3,1 km/h (1 Bft)
23.03.2010 04:08 15,7 C 7,9 C 0,0 UV-I 0,0 C 55 % 85 % 0 % 1019,1 hPa 0,0 l/m 1,6 km/h (1 Bft) 0 min 4,1 km/h (1 Bft)
23.03.2010 04:10 15,7 C 7,9 C 0,0 UV-I 0,0 C 55 % 85 % 0 % 1019,1 hPa 0,0 l/m 1,6 km/h (1 Bft) 0 min 0,0 km/h (0 Bft)
23.03.2010 04:13 15,6 C 7,9 C 0,0 UV-I 0,0 C 55 % 85 % 0 % 1019,0 hPa 0,0 l/m 1,2 km/h (1 Bft) 0 min 0,0 km/h (0 Bft)
23.03.2010 04:19 15,6 C 7,9 C 0,0 UV-I 0,0 C 55 % 85 % 0 % 1019,0 hPa 0,0 l/m 0,8 km/h (0 Bft) 0 min 2,6 km/h (1 Bft)
23.03.2010 04:20 15,6 C 7,9 C 0,0 UV-I 0,0 C 55 % 85 % 0 % 1019,0 hPa 0,0 l/m 0,8 km/h (0 Bft) 0 min 2,6 km/h (1 Bft)
23.03.2010 04:22 15,7 C 7,9 C 0,0 UV-I 0,0 C 55 % 85 % 0 % 1019,0 hPa 0,0 l/m 0,8 km/h (0 Bft) 0 min 0,0 km/h (0 Bft)
23.03.2010 04:24 15,6 C 8,0 C 0,0 UV-I 0,0 C 55 % 85 % 0 % 1019,0 hPa 0,0 l/m 0,8 km/h (0 Bft) 0 min 0,0 km/h (0 Bft)
23.03.2010 04:26 15,7 C 8,0 C 0,0 UV-I 0,0 C 55 % 85 % 0 % 1019,0 hPa 0,0 l/m 0,8 km/h (0 Bft) 0 min 0,0 km/h (0 Bft)
23.03.2010 04:28 15,7 C 8,0 C 0,0 UV-I 0,0 C 55 % 85 % 0 % 1019,0 hPa 0,0 l/m 0,8 km/h (0 Bft) 0 min 0,0 km/h (0 Bft)
23.03.2010 04:30 15,7 C 7,9 C 0,0 UV-I 0,0 C 55 % 85 % 0 % 1019,0 hPa 0,0 l/m 0,4 km/h (0 Bft) 0 min 0,0 km/h (0 Bft)
23.03.2010 04:32 15,7 C 7,9 C 0,0 UV-I 0,0 C 55 % 85 % 0 % 1019,1 hPa 0,0 l/m 0,4 km/h (0 Bft) 0 min 0,0 km/h (0 Bft)
23.03.2010 04:34 15,6 C 7,9 C 0,0 UV-I 0,0 C 55 % 85 % 0 % 1019,1 hPa 0,0 l/m 0,4 km/h (0 Bft) 0 min 0,0 km/h (0 Bft)
23.03.2010 04:36 15,7 C 8,0 C 0,0 UV-I 0,0 C 55 % 85 % 0 % 1019,1 hPa 0,0 l/m 0,4 km/h (0 Bft) 0 min 2,4 km/h (1 Bft)
23.03.2010 04:38 15,7 C 7,9 C 0,0 UV-I 0,0 C 55 % 85 % 0 % 1019,1 hPa 0,0 l/m 0,4 km/h (0 Bft) 0 min 0,0 km/h (0 Bft)
23.03.2010 04:40 15,7 C 7,9 C 0,0 UV-I 0,0 C 55 % 85 % 0 % 1019,1 hPa 0,0 l/m 0,4 km/h (0 Bft) 0 min 0,0 km/h (0 Bft)
23.03.2010 04:42 15,7 C 7,9 C 0,0 UV-I 0,0 C 55 % 85 % 0 % 1019,1 hPa 0,0 l/m 0,4 km/h (0 Bft) 0 min 0,0 km/h (0 Bft)
23.03.2010 04:44 15,7 C 7,9 C 0,0 UV-I 0,0 C 55 % 85 % 0 % 1019,1 hPa 0,0 l/m 0,8 km/h (0 Bft) 0 min 0,0 km/h (0 Bft)
23.03.2010 04:46 15,7 C 7,9 C 0,0 UV-I 0,0 C 55 % 85 % 0 % 1019,1 hPa 0,0 l/m 0,8 km/h (0 Bft) 0 min 0,0 km/h (0 Bft)
23.03.2010 04:48 15,7 C 8,0 C 0,0 UV-I 0,0 C 55 % 85 % 0 % 1019,1 hPa 0,0 l/m 0,8 km/h (0 Bft) 0 min 0,0 km/h (0 Bft)
23.03.2010 04:50 15,6 C 8,0 C 0,0 UV-I 0,0 C 55 % 85 % 0 % 1019,1 hPa 0,0 l/m 0,8 km/h (0 Bft) 0 min 2,6 km/h (1 Bft)
23.03.2010 04:52 15,7 C 8,0 C 0,0 UV-I 0,0 C 55 % 85 % 0 % 1019,2 hPa 0,0 l/m 0,8 km/h (0 Bft) 0 min 2,4 km/h (1 Bft)
23.03.2010 04:54 15,7 C 8,0 C 0,0 UV-I 0,0 C 55 % 85 % 0 % 1019,2 hPa 0,0 l/m 0,8 km/h (0 Bft) 0 min 0,0 km/h (0 Bft)
23.03.2010 04:56 15,7 C 8,0 C 0,0 UV-I 0,0 C 55 % 85 % 0 % 1019,2 hPa 0,0 l/m 0,4 km/h (0 Bft) 0 min 0,0 km/h (0 Bft)
23.03.2010 04:58 15,7 C 8,0 C 0,0 UV-I 0,0 C 55 % 85 % 0 % 1019,2 hPa 0,0 l/m 0,4 km/h (0 Bft) 0 min 0,0 km/h (0 Bft)
23.03.2010 05:00 15,7 C 8,0 C 0,0 UV-I 0,0 C 55 % 85 % 0 % 1019,2 hPa 0,0 l/m 0,4 km/h (0 Bft) 0 min 0,0 km/h (0 Bft)
23.03.2010 05:02 15,6 C 8,1 C 0,0 UV-I 0,0 C 55 % 85 % 0 % 1019,2 hPa 0,0 l/m 0,0 km/h (0 Bft) 0 min 0,0 km/h (0 Bft)
23.03.2010 05:04 15,6 C 8,1 C 0,0 UV-I 0,0 C 55 % 85 % 0 % 1019,2 hPa 0,0 l/m 0,0 km/h (0 Bft) 0 min 0,0 km/h (0 Bft)
23.03.2010 05:06 15,7 C 8,1 C 0,0 UV-I 0,0 C 55 % 85 % 0 % 1019,2 hPa 0,0 l/m 0,0 km/h (0 Bft) 0 min 0,0 km/h (0 Bft)
23.03.2010 05:08 15,7 C 8,0 C 0,0 UV-I 0,0 C 55 % 86 % 0 % 1019,2 hPa 0,0 l/m 0,0 km/h (0 Bft) 0 min 0,0 km/h (0 Bft)
23.03.2010 05:10 15,7 C 8,0 C 0,0 UV-I 0,0 C 55 % 86 % 0 % 1019,2 hPa 0,0 l/m 0,0 km/h (0 Bft) 0 min 0,0 km/h (0 Bft)
23.03.2010 05:12 15,7 C 8,0 C 0,0 UV-I 0,0 C 55 % 86 % 0 % 1019,2 hPa 0,0 l/m 0,0 km/h (0 Bft) 0 min 0,0 km/h (0 Bft)
23.03.2010 05:14 15,7 C 8,1 C 0,0 UV-I 0,0 C 55 % 86 % 0 % 1019,2 hPa 0,0 l/m 0,4 km/h (0 Bft) 0 min 4,1 km/h (1 Bft)
23.03.2010 05:16 15,7 C 8,1 C 0,0 UV-I 0,0 C 55 % 86 % 0 % 1019,2 hPa 0,0 l/m 0,4 km/h (0 Bft) 0 min 0,0 km/h (0 Bft)
23.03.2010 05:18 15,6 C 8,1 C 0,0 UV-I 0,0 C 55 % 86 % 0 % 1019,2 hPa 0,0 l/m 0,4 km/h (0 Bft) 0 min 0,0 km/h (0 Bft)
23.03.2010 05:20 15,6 C 8,1 C 0,0 UV-I 0,0 C 55 % 86 % 0 % 1019,2 hPa 0,0 l/m 1,2 km/h (1 Bft) 0 min 7,0 km/h (2 Bft)
23.03.2010 05:22 15,7 C 8,1 C 0,0 UV-I 0,0 C 55 % 86 % 0 % 1019,2 hPa 0,0 l/m 1,2 km/h (1 Bft) 0 min 0,0 km/h (0 Bft)
23.03.2010 05:24 15,7 C 8,1 C 0,0 UV-I 0,0 C 55 % 86 % 0 % 1019,2 hPa 0,0 l/m 1,6 km/h (1 Bft) 0 min 2,9 km/h (1 Bft)
23.03.2010 05:26 15,7 C 8,1 C 0,0 UV-I 0,0 C 55 % 86 % 0 % 1019,2 hPa 0,0 l/m 1,6 km/h (1 Bft) 0 min 0,0 km/h (0 Bft)
23.03.2010 05:28 15,7 C 8,2 C 0,0 UV-I 0,0 C 55 % 86 % 0 % 1019,2 hPa 0,0 l/m 2,0 km/h (1 Bft) 0 min 0,0 km/h (0 Bft)
23.03.2010 05:30 15,7 C 8,3 C 0,0 UV-I 0,0 C 55 % 86 % 0 % 1019,2 hPa 0,0 l/m 2,8 km/h (1 Bft) 0 min 3,6 km/h (1 Bft)
23.03.2010 05:32 15,7 C 8,3 C 0,0 UV-I 0,0 C 55 % 86 % 0 % 1019,6 hPa 0,0 l/m 2,8 km/h (1 Bft) 0 min 4,6 km/h (1 Bft)
23.03.2010 05:34 15,7 C 8,3 C 0,0 UV-I 0,0 C 55 % 86 % 0 % 1019,6 hPa 0,0 l/m 3,2 km/h (1 Bft) 0 min 5,8 km/h (2 Bft)
23.03.2010 05:36 15,6 C 8,3 C 0,0 UV-I 0,0 C 55 % 86 % 0 % 1019,6 hPa 0,0 l/m 3,2 km/h (1 Bft) 0 min 3,6 km/h (1 Bft)
23.03.2010 05:38 15,7 C 8,3 C 0,0 UV-I 0,0 C 55 % 86 % 0 % 1019,6 hPa 0,0 l/m 3,2 km/h (1 Bft) 0 min 0,0 km/h (0 Bft)
23.03.2010 05:40 15,7 C 8,3 C 0,0 UV-I 0,0 C 55 % 86 % 0 % 1019,6 hPa 0,0 l/m 3,2 km/h (1 Bft) 0 min 2,6 km/h (1 Bft)
23.03.2010 05:42 15,7 C 8,3 C 0,0 UV-I 0,0 C 56 % 86 % 0 % 1019,6 hPa 0,0 l/m 2,8 km/h (1 Bft) 0 min 4,1 km/h (1 Bft)
23.03.2010 05:44 15,7 C 8,3 C 0,0 UV-I 0,0 C 55 % 86 % 0 % 1019,6 hPa 0,0 l/m 2,8 km/h (1 Bft) 0 min 3,1 km/h (1 Bft)
23.03.2010 05:46 15,7 C 8,3 C 0,0 UV-I 0,0 C 56 % 86 % 0 % 1019,6 hPa 0,0 l/m 2,0 km/h (1 Bft) 0 min 0,0 km/h (0 Bft)
23.03.2010 05:48 15,7 C 8,3 C 0,0 UV-I 0,0 C 56 % 86 % 0 % 1019,6 hPa 0,0 l/m 1,6 km/h (1 Bft) 0 min 0,0 km/h (0 Bft)
23.03.2010 05:50 15,7 C 8,3 C 0,0 UV-I 0,0 C 56 % 86 % 0 % 1019,6 hPa 0,0 l/m 1,6 km/h (1 Bft) 0 min 0,0 km/h (0 Bft)
23.03.2010 05:52 15,7 C 8,3 C 0,0 UV-I 0,0 C 56 % 86 % 0 % 1019,4 hPa 0,0 l/m 1,6 km/h (1 Bft) 0 min 2,6 km/h (1 Bft)
23.03.2010 05:54 15,7 C 8,3 C 0,0 UV-I 0,0 C 55 % 86 % 0 % 1019,4 hPa 0,0 l/m 2,0 km/h (1 Bft) 0 min 0,0 km/h (0 Bft)
23.03.2010 05:56 15,6 C 8,3 C 0,0 UV-I 0,0 C 56 % 86 % 0 % 1019,4 hPa 0,0 l/m 1,6 km/h (1 Bft) 0 min 0,0 km/h (0 Bft)
23.03.2010 05:58 15,6 C 8,3 C 0,0 UV-I 0,0 C 56 % 86 % 0 % 1019,4 hPa 0,0 l/m 2,0 km/h (1 Bft) 0 min 3,8 km/h (1 Bft)
23.03.2010 06:00 15,6 C 8,4 C 0,0 UV-I 0,0 C 56 % 86 % 0 % 1019,4 hPa 0,0 l/m 2,0 km/h (1 Bft) 0 min 3,6 km/h (1 Bft)
23.03.2010 06:02 15,7 C 8,4 C 0,0 UV-I 0,0 C 56 % 86 % 0 % 1019,4 hPa 0,0 l/m 2,4 km/h (1 Bft) 0 min 2,9 km/h (1 Bft)
23.03.2010 06:04 15,6 C 8,4 C 0,0 UV-I 0,0 C 56 % 86 % 0 % 1019,4 hPa 0,0 l/m 2,4 km/h (1 Bft) 0 min 2,9 km/h (1 Bft)
23.03.2010 06:06 15,6 C 8,4 C 0,0 UV-I 0,0 C 56 % 86 % 0 % 1019,4 hPa 0,0 l/m 3,2 km/h (1 Bft) 0 min 0,0 km/h (0 Bft)
23.03.2010 06:08 15,6 C 8,5 C 0,0 UV-I 0,0 C 56 % 86 % 0 % 1019,4 hPa 0,0 l/m 3,2 km/h (1 Bft) 0 min 0,0 km/h (0 Bft)
23.03.2010 06:10 15,6 C 8,4 C 0,0 UV-I 0,0 C 56 % 86 % 0 % 1019,4 hPa 0,0 l/m 3,2 km/h (1 Bft) 0 min 0,0 km/h (0 Bft)
23.03.2010 06:12 15,6 C 8,5 C 0,0 UV-I 0,0 C 56 % 87 % 0 % 1019,6 hPa 0,0 l/m 3,2 km/h (1 Bft) 0 min 2,6 km/h (1 Bft)
23.03.2010 06:14 15,6 C 8,5 C 0,0 UV-I 0,0 C 56 % 87 % 0 % 1019,6 hPa 0,0 l/m 2,8 km/h (1 Bft) 0 min 4,3 km/h (1 Bft)
23.03.2010 06:16 15,6 C 8,5 C 0,0 UV-I 0,0 C 56 % 87 % 0 % 1019,6 hPa 0,0 l/m 2,4 km/h (1 Bft) 0 min 2,9 km/h (1 Bft)
23.03.2010 06:18 15,6 C 8,4 C 0,0 UV-I 0,0 C 56 % 87 % 0 % 1019,6 hPa 0,0 l/m 2,4 km/h (1 Bft) 0 min 2,9 km/h (1 Bft)
23.03.2010 06:20 15,6 C 8,5 C 0,0 UV-I 0,0 C 56 % 87 % 0 % 1019,6 hPa 0,0 l/m 1,6 km/h (1 Bft) 0 min 0,0 km/h (0 Bft)
23.03.2010 06:22 15,6 C 8,5 C 0,0 UV-I 0,0 C 56 % 87 % 0 % 1019,6 hPa 0,0 l/m 2,0 km/h (1 Bft) 0 min 0,0 km/h (0 Bft)
23.03.2010 06:24 15,6 C 8,5 C 0,0 UV-I 0,0 C 56 % 87 % 0 % 1019,6 hPa 0,0 l/m 2,0 km/h (1 Bft) 0 min 0,0 km/h (0 Bft)
23.03.2010 06:26 15,6 C 8,5 C 0,0 UV-I 0,0 C 56 % 87 % 0 % 1019,6 hPa 0,0 l/m 1,6 km/h (1 Bft) 0 min 0,0 km/h (0 Bft)
23.03.2010 06:28 15,6 C 8,5 C 0,0 UV-I 0,0 C 56 % 87 % 0 % 1019,6 hPa 0,0 l/m 2,0 km/h (1 Bft) 0 min 4,6 km/h (1 Bft)
23.03.2010 06:30 15,6 C 8,4 C 0,0 UV-I 0,0 C 56 % 87 % 0 % 1019,6 hPa 0,0 l/m 2,4 km/h (1 Bft) 0 min 7,9 km/h (2 Bft)
23.03.2010 06:32 15,6 C 8,4 C 0,0 UV-I 0,0 C 56 % 87 % 0 % 1020,0 hPa 0,0 l/m 2,4 km/h (1 Bft) 0 min 0,0 km/h (0 Bft)
23.03.2010 06:34 15,6 C 8,5 C 0,0 UV-I 0,0 C 56 % 87 % 0 % 1020,0 hPa 0,0 l/m 2,4 km/h (1 Bft) 0 min 0,0 km/h (0 Bft)
23.03.2010 06:36 15,6 C 8,4 C 0,0 UV-I 0,0 C 56 % 87 % 0 % 1020,0 hPa 0,0 l/m 2,0 km/h (1 Bft) 0 min 0,0 km/h (0 Bft)
23.03.2010 06:38 15,6 C 8,4 C 0,0 UV-I 0,0 C 56 % 87 % 0 % 1020,0 hPa 0,0 l/m 2,0 km/h (1 Bft) 0 min 2,9 km/h (1 Bft)
23.03.2010 06:40 15,6 C 8,4 C 0,0 UV-I 0,0 C 56 % 87 % 0 % 1020,0 hPa 0,0 l/m 2,0 km/h (1 Bft) 0 min 3,1 km/h (1 Bft)
23.03.2010 06:42 15,6 C 8,4 C 0,0 UV-I 0,0 C 56 % 87 % 0 % 1020,0 hPa 0,0 l/m 1,6 km/h (1 Bft) 0 min 4,1 km/h (1 Bft)
23.03.2010 06:44 15,6 C 8,4 C 0,0 UV-I 0,0 C 56 % 87 % 0 % 1020,0 hPa 0,0 l/m 1,2 km/h (1 Bft) 0 min 2,4 km/h (1 Bft)
23.03.2010 06:46 15,6 C 8,4 C 0,0 UV-I 0,0 C 56 % 87 % 0 % 1020,0 hPa 0,0 l/m 1,2 km/h (1 Bft) 0 min 0,0 km/h (0 Bft)
23.03.2010 06:48 15,6 C 8,4 C 0,0 UV-I 0,0 C 56 % 87 % 0 % 1020,0 hPa 0,0 l/m 1,2 km/h (1 Bft) 0 min 0,0 km/h (0 Bft)
23.03.2010 06:50 15,6 C 8,3 C 0,0 UV-I 0,0 C 56 % 87 % 0 % 1020,0 hPa 0,0 l/m 0,8 km/h (0 Bft) 0 min 2,4 km/h (1 Bft)
23.03.2010 06:52 15,6 C 8,3 C 0,0 UV-I 0,0 C 56 % 87 % 0 % 1019,9 hPa 0,0 l/m 0,4 km/h (0 Bft) 0 min 0,0 km/h (0 Bft)
23.03.2010 06:54 15,6 C 8,3 C 0,0 UV-I 0,0 C 56 % 88 % 0 % 1019,9 hPa 0,0 l/m 0,8 km/h (0 Bft) 0 min 0,0 km/h (0 Bft)
23.03.2010 06:56 15,6 C 8,3 C 0,0 UV-I 0,0 C 56 % 88 % 0 % 1019,9 hPa 0,0 l/m 0,4 km/h (0 Bft) 0 min 0,0 km/h (0 Bft)
23.03.2010 06:58 15,6 C 8,3 C 0,0 UV-I 0,0 C 56 % 88 % 0 % 1019,9 hPa 0,0 l/m 0,8 km/h (0 Bft) 0 min 0,0 km/h (0 Bft)
23.03.2010 07:00 15,6 C 8,3 C 0,0 UV-I 0,0 C 56 % 88 % 0 % 1019,9 hPa 0,0 l/m 0,8 km/h (0 Bft) 0 min 0,0 km/h (0 Bft)
23.03.2010 07:02 15,6 C 8,3 C 0,0 UV-I 0,0 C 56 % 88 % 0 % 1019,9 hPa 0,0 l/m 0,8 km/h (0 Bft) 0 min 0,0 km/h (0 Bft)
23.03.2010 07:04 15,6 C 8,3 C 0,0 UV-I 0,0 C 56 % 88 % 0 % 1019,9 hPa 0,0 l/m 0,8 km/h (0 Bft) 0 min 2,6 km/h (1 Bft)
23.03.2010 07:06 15,6 C 8,3 C 0,0 UV-I 0,0 C 56 % 88 % 0 % 1019,9 hPa 0,0 l/m 1,2 km/h (1 Bft) 0 min 3,1 km/h (1 Bft)
23.03.2010 07:08 15,6 C 8,3 C 0,0 UV-I 0,0 C 56 % 88 % 0 % 1019,9 hPa 0,0 l/m 1,6 km/h (1 Bft) 0 min 6,3 km/h (2 Bft)
23.03.2010 07:10 15,6 C 8,3 C 0,0 UV-I 0,0 C 56 % 88 % 0 % 1019,9 hPa 0,0 l/m 1,6 km/h (1 Bft) 0 min 4,3 km/h (1 Bft)
23.03.2010 07:12 15,6 C 8,3 C 0,0 UV-I 0,0 C 56 % 88 % 0 % 1020,1 hPa 0,0 l/m 1,6 km/h (1 Bft) 0 min 0,0 km/h (0 Bft)
23.03.2010 07:14 15,6 C 8,3 C 0,0 UV-I 0,0 C 56 % 88 % 0 % 1020,1 hPa 0,0 l/m 1,6 km/h (1 Bft) 0 min 2,6 km/h (1 Bft)
23.03.2010 07:16 15,6 C 8,3 C 0,0 UV-I 0,0 C 56 % 88 % 0 % 1020,1 hPa 0,0 l/m 2,0 km/h (1 Bft) 0 min 2,9 km/h (1 Bft)
23.03.2010 07:18 15,6 C 8,3 C 0,0 UV-I 0,0 C 56 % 89 % 0 % 1020,1 hPa 0,0 l/m 2,0 km/h (1 Bft) 0 min 3,6 km/h (1 Bft)
23.03.2010 07:20 15,6 C 8,3 C 0,0 UV-I 0,0 C 56 % 89 % 0 % 1020,1 hPa 0,0 l/m 1,6 km/h (1 Bft) 0 min 2,9 km/h (1 Bft)
23.03.2010 07:22 15,6 C 8,3 C 0,0 UV-I 0,0 C 56 % 89 % 0 % 1020,1 hPa 0,0 l/m 2,0 km/h (1 Bft) 0 min 0,0 km/h (0 Bft)
23.03.2010 07:24 15,6 C 8,3 C 0,0 UV-I 0,0 C 56 % 89 % 0 % 1020,1 hPa 0,0 l/m 2,0 km/h (1 Bft) 0 min 0,0 km/h (0 Bft)
23.03.2010 07:26 15,6 C 8,3 C 0,0 UV-I 0,0 C 57 % 89 % 0 % 1020,1 hPa 0,0 l/m 2,0 km/h (1 Bft) 0 min 0,0 km/h (0 Bft)
23.03.2010 07:28 15,6 C 8,3 C 0,0 UV-I 0,0 C 57 % 89 % 0 % 1020,1 hPa 0,0 l/m 1,2 km/h (1 Bft) 0 min 0,0 km/h (0 Bft)
23.03.2010 07:30 15,6 C 8,3 C 0,0 UV-I 0,0 C 56 % 89 % 0 % 1020,1 hPa 0,0 l/m 0,8 km/h (0 Bft) 0 min 0,0 km/h (0 Bft)
23.03.2010 07:32 15,6 C 8,3 C 0,0 UV-I 0,0 C 57 % 89 % 0 % 1020,2 hPa 0,0 l/m 0,8 km/h (0 Bft) 0 min 0,0 km/h (0 Bft)
23.03.2010 07:34 15,6 C 8,3 C 0,0 UV-I 0,0 C 57 % 89 % 0 % 1020,2 hPa 0,0 l/m 0,4 km/h (0 Bft) 0 min 0,0 km/h (0 Bft)
23.03.2010 07:36 15,6 C 8,3 C 0,0 UV-I 0,0 C 56 % 89 % 0 % 1020,2 hPa 0,0 l/m 0,4 km/h (0 Bft) 0 min 0,0 km/h (0 Bft)
23.03.2010 07:38 15,6 C 8,3 C 0,0 UV-I 0,0 C 57 % 89 % 0 % 1020,2 hPa 0,0 l/m 0,8 km/h (0 Bft) 0 min 4,3 km/h (1 Bft)
23.03.2010 07:40 15,6 C 8,3 C 0,0 UV-I 0,0 C 57 % 89 % 0 % 1020,2 hPa 0,0 l/m 0,8 km/h (0 Bft) 0 min 0,0 km/h (0 Bft)
23.03.2010 07:42 15,6 C 8,3 C 0,0 UV-I 0,0 C 57 % 89 % 0 % 1020,2 hPa 0,0 l/m 0,8 km/h (0 Bft) 0 min 2,4 km/h (1 Bft)
23.03.2010 07:44 15,6 C 8,3 C 0,0 UV-I 0,0 C 57 % 89 % 0 % 1020,2 hPa 0,0 l/m 0,8 km/h (0 Bft) 0 min 4,8 km/h (1 Bft)
23.03.2010 07:46 15,6 C 8,2 C 0,0 UV-I 0,0 C 57 % 89 % 0 % 1020,2 hPa 0,0 l/m 0,8 km/h (0 Bft) 0 min 0,0 km/h (0 Bft)
23.03.2010 07:50 15,6 C 8,3 C 0,0 UV-I 0,0 C 57 % 89 % 0 % 1020,2 hPa 0,0 l/m 0,8 km/h (0 Bft) 0 min 0,0 km/h (0 Bft)
23.03.2010 07:52 15,6 C 8,2 C 0,0 UV-I 0,0 C 57 % 89 % 0 % 1020,4 hPa 0,0 l/m 0,8 km/h (0 Bft) 0 min 0,0 km/h (0 Bft)
23.03.2010 07:54 15,6 C 8,3 C 0,1 UV-I 0,0 C 57 % 89 % 0 % 1020,4 hPa 0,0 l/m 0,8 km/h (0 Bft) 0 min 0,0 km/h (0 Bft)
23.03.2010 07:56 15,6 C 8,3 C 0,1 UV-I 0,0 C 57 % 89 % 0 % 1020,4 hPa 0,0 l/m 0,4 km/h (0 Bft) 0 min 0,0 km/h (0 Bft)
23.03.2010 07:58 15,6 C 8,3 C 0,1 UV-I 0,0 C 57 % 89 % 0 % 1020,4 hPa 0,0 l/m 0,4 km/h (0 Bft) 0 min 0,0 km/h (0 Bft)
23.03.2010 08:00 15,6 C 8,3 C 0,1 UV-I 0,0 C 57 % 89 % 0 % 1020,4 hPa 0,0 l/m 0,4 km/h (0 Bft) 0 min 0,0 km/h (0 Bft)
23.03.2010 08:02 15,6 C 8,3 C 0,1 UV-I 0,1 C 57 % 89 % 3 % 1020,4 hPa 0,0 l/m 0,4 km/h (0 Bft) 0 min 0,0 km/h (0 Bft)
23.03.2010 08:04 15,6 C 8,3 C 0,1 UV-I 0,1 C 57 % 89 % 3 % 1020,4 hPa 0,0 l/m 0,4 km/h (0 Bft) 0 min 0,0 km/h (0 Bft)
23.03.2010 08:06 15,6 C 8,3 C 0,1 UV-I 0,2 C 57 % 89 % 6 % 1020,4 hPa 0,0 l/m 0,4 km/h (0 Bft) 0 min 0,0 km/h (0 Bft)
23.03.2010 08:08 15,6 C 8,3 C 0,1 UV-I 0,3 C 57 % 89 % 9 % 1020,4 hPa 0,0 l/m 0,8 km/h (0 Bft) 0 min 0,0 km/h (0 Bft)
23.03.2010 08:10 15,6 C 8,3 C 0,1 UV-I 0,3 C 57 % 89 % 9 % 1020,4 hPa 0,0 l/m 0,4 km/h (0 Bft) 0 min 0,0 km/h (0 Bft)
23.03.2010 08:12 15,6 C 8,4 C 0,1 UV-I 0,3 C 57 % 90 % 9 % 1020,6 hPa 0,0 l/m 1,2 km/h (1 Bft) 0 min 8,4 km/h (2 Bft)
23.03.2010 08:14 15,6 C 8,4 C 0,1 UV-I 0,3 C 57 % 89 % 9 % 1020,6 hPa 0,0 l/m 1,6 km/h (1 Bft) 0 min 5,3 km/h (1 Bft)
23.03.2010 08:16 15,6 C 8,4 C 0,1 UV-I 0,4 C 57 % 89 % 11 % 1020,6 hPa 0,0 l/m 1,6 km/h (1 Bft) 0 min 0,0 km/h (0 Bft)
23.03.2010 08:18 15,7 C 8,5 C 0,1 UV-I 0,3 C 57 % 89 % 9 % 1020,6 hPa 0,0 l/m 1,2 km/h (1 Bft) 0 min 0,0 km/h (0 Bft)
23.03.2010 08:20 15,7 C 8,4 C 0,5 UV-I 0,5 C 57 % 90 % 14 % 1020,6 hPa 0,0 l/m 1,6 km/h (1 Bft) 0 min 0,0 km/h (0 Bft)
23.03.2010 08:22 15,7 C 8,4 C 0,5 UV-I 0,6 C 57 % 90 % 17 % 1020,6 hPa 0,0 l/m 2,4 km/h (1 Bft) 0 min 0,0 km/h (0 Bft)
23.03.2010 08:24 15,7 C 8,4 C 0,5 UV-I 0,7 C 57 % 89 % 20 % 1020,6 hPa 0,0 l/m 1,6 km/h (1 Bft) 0 min 0,0 km/h (0 Bft)
23.03.2010 08:26 15,7 C 8,5 C 0,5 UV-I 0,7 C 57 % 90 % 20 % 1020,6 hPa 0,0 l/m 1,6 km/h (1 Bft) 0 min 3,8 km/h (1 Bft)
23.03.2010 08:28 15,7 C 8,5 C 0,5 UV-I 0,8 C 57 % 89 % 23 % 1020,6 hPa 0,0 l/m 2,0 km/h (1 Bft) 0 min 3,8 km/h (1 Bft)
23.03.2010 08:30 15,7 C 8,6 C 0,5 UV-I 0,8 C 57 % 90 % 23 % 1020,6 hPa 0,0 l/m 2,0 km/h (1 Bft) 0 min 3,4 km/h (1 Bft)
23.03.2010 08:32 15,7 C 8,5 C 0,5 UV-I 1,0 C 57 % 90 % 29 % 1020,8 hPa 0,0 l/m 2,0 km/h (1 Bft) 0 min 0,0 km/h (0 Bft)
23.03.2010 08:36 15,6 C 8,6 C 0,6 UV-I 1,0 C 57 % 89 % 29 % 1020,8 hPa 0,0 l/m 2,0 km/h (1 Bft) 0 min 2,9 km/h (1 Bft)
23.03.2010 08:38 15,6 C 8,7 C 0,6 UV-I 1,0 C 57 % 89 % 29 % 1020,8 hPa 0,0 l/m 2,0 km/h (1 Bft) 0 min 0,0 km/h (0 Bft)
23.03.2010 08:40 15,6 C 8,7 C 0,6 UV-I 1,1 C 57 % 89 % 31 % 1020,8 hPa 0,0 l/m 2,0 km/h (1 Bft) 0 min 3,1 km/h (1 Bft)
23.03.2010 08:42 15,6 C 8,7 C 0,6 UV-I 1,2 C 57 % 89 % 34 % 1020,8 hPa 0,0 l/m 2,0 km/h (1 Bft) 0 min 0,0 km/h (0 Bft)
23.03.2010 08:44 15,6 C 8,8 C 0,5 UV-I 1,2 C 57 % 90 % 34 % 1020,8 hPa 0,0 l/m 1,6 km/h (1 Bft) 0 min 0,0 km/h (0 Bft)
23.03.2010 08:46 15,6 C 8,8 C 0,5 UV-I 1,2 C 57 % 90 % 34 % 1020,8 hPa 0,0 l/m 2,0 km/h (1 Bft) 0 min 2,9 km/h (1 Bft)
23.03.2010 08:48 15,6 C 8,8 C 0,5 UV-I 1,3 C 57 % 90 % 37 % 1020,8 hPa 0,0 l/m 2,0 km/h (1 Bft) 0 min 3,4 km/h (1 Bft)
23.03.2010 08:50 15,6 C 8,9 C 0,5 UV-I 1,3 C 57 % 90 % 37 % 1020,8 hPa 0,0 l/m 1,6 km/h (1 Bft) 0 min 0,0 km/h (0 Bft)
23.03.2010 08:52 15,6 C 8,9 C 0,5 UV-I 1,3 C 57 % 90 % 37 % 1020,9 hPa 0,0 l/m 2,0 km/h (1 Bft) 0 min 0,0 km/h (0 Bft)
23.03.2010 08:54 15,6 C 8,9 C 0,4 UV-I 1,4 C 57 % 90 % 40 % 1020,9 hPa 0,0 l/m 2,8 km/h (1 Bft) 0 min 4,1 km/h (1 Bft)
23.03.2010 08:56 15,8 C 8,9 C 0,4 UV-I 1,5 C 57 % 90 % 43 % 1020,9 hPa 0,0 l/m 3,2 km/h (1 Bft) 0 min 4,8 km/h (1 Bft)
23.03.2010 08:58 15,8 C 9,1 C 0,4 UV-I 1,3 C 57 % 89 % 37 % 1020,9 hPa 0,0 l/m 2,8 km/h (1 Bft) 0 min 0,0 km/h (0 Bft)
23.03.2010 09:00 15,8 C 9,1 C 0,5 UV-I 1,3 C 57 % 89 % 37 % 1020,9 hPa 0,0 l/m 3,2 km/h (1 Bft) 0 min 2,9 km/h (1 Bft)
23.03.2010 09:02 15,8 C 9,0 C 0,5 UV-I 1,4 C 57 % 89 % 40 % 1020,9 hPa 0,0 l/m 3,6 km/h (1 Bft) 0 min 2,4 km/h (1 Bft)
23.03.2010 09:04 15,8 C 9,1 C 0,5 UV-I 1,3 C 57 % 89 % 37 % 1020,9 hPa 0,0 l/m 3,2 km/h (1 Bft) 0 min 0,0 km/h (0 Bft)
23.03.2010 09:06 15,8 C 9,0 C 0,5 UV-I 1,4 C 57 % 89 % 40 % 1020,9 hPa 0,0 l/m 2,4 km/h (1 Bft) 0 min 2,6 km/h (1 Bft)
23.03.2010 09:08 15,8 C 9,1 C 0,5 UV-I 1,4 C 57 % 89 % 40 % 1020,9 hPa 0,0 l/m 2,0 km/h (1 Bft) 0 min 0,0 km/h (0 Bft)
23.03.2010 09:10 15,8 C 9,2 C 0,5 UV-I 1,3 C 57 % 89 % 37 % 1020,9 hPa 0,0 l/m 2,0 km/h (1 Bft) 0 min 0,0 km/h (0 Bft)
23.03.2010 09:12 15,8 C 9,2 C 0,5 UV-I 1,4 C 57 % 89 % 40 % 1020,9 hPa 0,0 l/m 1,2 km/h (1 Bft) 0 min 0,0 km/h (0 Bft)
23.03.2010 09:14 15,8 C 9,3 C 0,5 UV-I 1,4 C 57 % 89 % 40 % 1020,9 hPa 0,0 l/m 0,8 km/h (0 Bft) 0 min 0,0 km/h (0 Bft)
23.03.2010 09:16 15,8 C 9,2 C 0,5 UV-I 1,5 C 57 % 89 % 43 % 1020,9 hPa 0,0 l/m 0,4 km/h (0 Bft) 0 min 0,0 km/h (0 Bft)
23.03.2010 09:18 15,8 C 9,3 C 0,5 UV-I 1,5 C 57 % 89 % 43 % 1020,9 hPa 0,0 l/m 0,8 km/h (0 Bft) 0 min 0,0 km/h (0 Bft)
23.03.2010 09:22 15,8 C 9,3 C 0,7 UV-I 1,6 C 57 % 88 % 46 % 1020,9 hPa 0,0 l/m 1,2 km/h (1 Bft) 0 min 2,4 km/h (1 Bft)
23.03.2010 09:24 15,8 C 9,5 C 0,9 UV-I 1,4 C 57 % 88 % 40 % 1020,9 hPa 0,0 l/m 1,2 km/h (1 Bft) 0 min 0,0 km/h (0 Bft)
23.03.2010 09:26 15,8 C 9,5 C 0,9 UV-I 1,4 C 57 % 88 % 40 % 1020,9 hPa 0,0 l/m 1,2 km/h (1 Bft) 0 min 0,0 km/h (0 Bft)
23.03.2010 09:28 15,9 C 9,5 C 0,9 UV-I 1,5 C 57 % 88 % 43 % 1020,9 hPa 0,0 l/m 0,8 km/h (0 Bft) 0 min 0,0 km/h (0 Bft)
23.03.2010 09:30 15,9 C 9,5 C 0,9 UV-I 1,6 C 57 % 88 % 46 % 1020,9 hPa 0,0 l/m 1,2 km/h (1 Bft) 0 min 3,6 km/h (1 Bft)
23.03.2010 09:32 15,9 C 9,5 C 0,9 UV-I 1,6 C 57 % 88 % 46 % 1021,1 hPa 0,0 l/m 1,6 km/h (1 Bft) 0 min 3,6 km/h (1 Bft)
23.03.2010 09:34 15,9 C 9,6 C 0,9 UV-I 1,5 C 57 % 88 % 43 % 1021,1 hPa 0,0 l/m 1,6 km/h (1 Bft) 0 min 0,0 km/h (0 Bft)
23.03.2010 09:36 15,8 C 9,6 C 0,9 UV-I 1,5 C 57 % 88 % 43 % 1021,1 hPa 0,0 l/m 2,0 km/h (1 Bft) 0 min 3,1 km/h (1 Bft)
23.03.2010 09:38 15,8 C 9,7 C 0,9 UV-I 1,6 C 57 % 88 % 46 % 1021,1 hPa 0,0 l/m 2,0 km/h (1 Bft) 0 min 0,0 km/h (0 Bft)
23.03.2010 09:40 15,8 C 9,7 C 1,3 UV-I 1,6 C 57 % 88 % 46 % 1021,1 hPa 0,0 l/m 1,6 km/h (1 Bft) 0 min 2,9 km/h (1 Bft)
23.03.2010 09:42 15,8 C 9,7 C 1,3 UV-I 1,6 C 57 % 87 % 46 % 1021,1 hPa 0,0 l/m 2,0 km/h (1 Bft) 0 min 2,9 km/h (1 Bft)
23.03.2010 09:44 15,8 C 9,7 C 1,1 UV-I 1,6 C 57 % 87 % 46 % 1021,1 hPa 0,0 l/m 1,6 km/h (1 Bft) 0 min 0,0 km/h (0 Bft)
23.03.2010 09:46 16,0 C 9,9 C 1,1 UV-I 1,5 C 57 % 87 % 43 % 1021,1 hPa 0,0 l/m 1,2 km/h (1 Bft) 0 min 0,0 km/h (0 Bft)
23.03.2010 09:48 16,0 C 9,9 C 1,1 UV-I 1,6 C 57 % 87 % 46 % 1021,1 hPa 0,0 l/m 0,8 km/h (0 Bft) 0 min 0,0 km/h (0 Bft)
23.03.2010 09:50 16,0 C 9,9 C 1,1 UV-I 1,7 C 57 % 87 % 49 % 1021,1 hPa 0,0 l/m 1,6 km/h (1 Bft) 0 min 3,4 km/h (1 Bft)
23.03.2010 09:52 16,0 C 9,9 C 1,1 UV-I 1,8 C 57 % 86 % 51 % 1021,4 hPa 0,0 l/m 1,6 km/h (1 Bft) 0 min 0,0 km/h (0 Bft)
23.03.2010 09:54 16,0 C 10,0 C 1,4 UV-I 1,7 C 57 % 86 % 49 % 1021,4 hPa 0,0 l/m 1,2 km/h (1 Bft) 0 min 0,0 km/h (0 Bft)
23.03.2010 09:56 16,0 C 9,9 C 1,4 UV-I 1,9 C 57 % 86 % 54 % 1021,4 hPa 0,0 l/m 1,6 km/h (1 Bft) 0 min 2,4 km/h (1 Bft)
23.03.2010 10:00 16,0 C 10,0 C 1,2 UV-I 1,9 C 57 % 86 % 54 % 1021,4 hPa 0,0 l/m 1,6 km/h (1 Bft) 0 min 0,0 km/h (0 Bft)
23.03.2010 10:02 16,0 C 10,1 C 1,2 UV-I 1,8 C 57 % 86 % 51 % 1021,4 hPa 0,0 l/m 0,8 km/h (0 Bft) 0 min 0,0 km/h (0 Bft)
23.03.2010 10:04 15,9 C 10,1 C 1,2 UV-I 1,8 C 57 % 85 % 51 % 1021,4 hPa 0,0 l/m 0,8 km/h (0 Bft) 0 min 0,0 km/h (0 Bft)
23.03.2010 10:06 16,0 C 10,1 C 1,2 UV-I 1,8 C 57 % 85 % 51 % 1021,4 hPa 0,0 l/m 0,4 km/h (0 Bft) 0 min 0,0 km/h (0 Bft)
23.03.2010 10:10 16,0 C 10,3 C 1,5 UV-I 1,9 C 57 % 86 % 54 % 1021,4 hPa 0,0 l/m 0,4 km/h (0 Bft) 0 min 2,9 km/h (1 Bft)
23.03.2010 10:12 15,9 C 10,2 C 1,5 UV-I 2,0 C 57 % 85 % 57 % 1021,4 hPa 0,0 l/m 2,0 km/h (1 Bft) 0 min 5,5 km/h (1 Bft)
23.03.2010 10:14 15,9 C 10,3 C 1,7 UV-I 1,9 C 57 % 85 % 54 % 1021,4 hPa 0,0 l/m 2,0 km/h (1 Bft) 0 min 3,6 km/h (1 Bft)
23.03.2010 10:16 15,9 C 10,4 C 1,7 UV-I 1,8 C 57 % 85 % 51 % 1021,4 hPa 0,0 l/m 2,4 km/h (1 Bft) 0 min 2,6 km/h (1 Bft)
23.03.2010 10:18 15,9 C 10,4 C 1,7 UV-I 1,9 C 57 % 84 % 54 % 1021,4 hPa 0,0 l/m 2,8 km/h (1 Bft) 0 min 2,4 km/h (1 Bft)
23.03.2010 10:20 15,9 C 10,4 C 1,2 UV-I 2,0 C 57 % 84 % 57 % 1021,4 hPa 0,0 l/m 2,8 km/h (1 Bft) 0 min 0,0 km/h (0 Bft)
23.03.2010 10:22 15,9 C 10,5 C 1,2 UV-I 1,9 C 56 % 84 % 54 % 1021,4 hPa 0,0 l/m 2,4 km/h (1 Bft) 0 min 0,0 km/h (0 Bft)
23.03.2010 10:24 16,1 C 10,4 C 1,1 UV-I 2,0 C 56 % 84 % 57 % 1021,4 hPa 0,0 l/m 1,6 km/h (1 Bft) 0 min 2,4 km/h (1 Bft)
23.03.2010 10:26 16,1 C 10,5 C 1,1 UV-I 1,9 C 56 % 84 % 54 % 1021,4 hPa 0,0 l/m 2,0 km/h (1 Bft) 0 min 3,1 km/h (1 Bft)
23.03.2010 10:28 16,1 C 10,5 C 1,1 UV-I 1,8 C 56 % 84 % 51 % 1021,4 hPa 0,0 l/m 2,0 km/h (1 Bft) 0 min 3,4 km/h (1 Bft)
23.03.2010 10:30 16,1 C 10,5 C 1,1 UV-I 1,8 C 56 % 84 % 51 % 1021,4 hPa 0,0 l/m 2,0 km/h (1 Bft) 0 min 0,0 km/h (0 Bft)
23.03.2010 10:32 16,1 C 10,5 C 1,1 UV-I 1,8 C 56 % 84 % 51 % 1021,8 hPa 0,0 l/m 1,6 km/h (1 Bft) 0 min 2,9 km/h (1 Bft)
23.03.2010 10:34 16,1 C 10,5 C 0,9 UV-I 1,8 C 56 % 84 % 51 % 1021,8 hPa 0,0 l/m 2,0 km/h (1 Bft) 0 min 0,0 km/h (0 Bft)
23.03.2010 10:36 16,1 C 10,7 C 0,9 UV-I 1,6 C 56 % 84 % 46 % 1021,8 hPa 0,0 l/m 1,6 km/h (1 Bft) 0 min 0,0 km/h (0 Bft)
23.03.2010 10:38 16,1 C 10,7 C 0,9 UV-I 1,6 C 56 % 84 % 46 % 1021,8 hPa 0,0 l/m 1,2 km/h (1 Bft) 0 min 0,0 km/h (0 Bft)
23.03.2010 10:40 16,1 C 10,7 C 0,9 UV-I 1,6 C 56 % 83 % 46 % 1021,8 hPa 0,0 l/m 1,2 km/h (1 Bft) 0 min 4,1 km/h (1 Bft)
23.03.2010 10:42 16,1 C 10,7 C 0,9 UV-I 1,6 C 56 % 83 % 46 % 1021,8 hPa 0,0 l/m 1,6 km/h (1 Bft) 0 min 0,0 km/h (0 Bft)
23.03.2010 10:44 16,1 C 10,7 C 1,0 UV-I 1,6 C 56 % 83 % 46 % 1021,8 hPa 0,0 l/m 1,6 km/h (1 Bft) 0 min 4,3 km/h (1 Bft)
23.03.2010 10:46 16,2 C 10,8 C 1,0 UV-I 1,4 C 56 % 82 % 40 % 1021,8 hPa 0,0 l/m 2,0 km/h (1 Bft) 0 min 5,1 km/h (1 Bft)
23.03.2010 10:48 16,2 C 10,8 C 1,0 UV-I 1,4 C 56 % 82 % 40 % 1021,8 hPa 0,0 l/m 2,4 km/h (1 Bft) 0 min 2,9 km/h (1 Bft)
23.03.2010 10:50 16,2 C 10,9 C 0,8 UV-I 1,3 C 56 % 82 % 37 % 1021,8 hPa 0,0 l/m 2,4 km/h (1 Bft) 0 min 3,1 km/h (1 Bft)
23.03.2010 10:52 16,2 C 10,8 C 0,8 UV-I 1,4 C 56 % 82 % 40 % 1021,6 hPa 0,0 l/m 1,6 km/h (1 Bft) 0 min 0,0 km/h (0 Bft)
23.03.2010 10:54 16,2 C 10,8 C 0,7 UV-I 1,3 C 56 % 82 % 37 % 1021,6 hPa 0,0 l/m 2,0 km/h (1 Bft) 0 min 3,4 km/h (1 Bft)
23.03.2010 10:56 16,2 C 10,8 C 0,7 UV-I 1,3 C 56 % 81 % 37 % 1021,6 hPa 0,0 l/m 2,0 km/h (1 Bft) 0 min 2,6 km/h (1 Bft)
23.03.2010 10:58 16,2 C 10,8 C 0,7 UV-I 1,2 C 56 % 82 % 34 % 1021,6 hPa 0,0 l/m 2,0 km/h (1 Bft) 0 min 3,8 km/h (1 Bft)
23.03.2010 11:00 16,2 C 10,9 C 1,0 UV-I 1,0 C 56 % 82 % 29 % 1021,6 hPa 0,0 l/m 2,0 km/h (1 Bft) 0 min 0,0 km/h (0 Bft)
23.03.2010 11:02 16,2 C 10,9 C 1,0 UV-I 1,1 C 56 % 82 % 31 % 1021,6 hPa 0,0 l/m 2,0 km/h (1 Bft) 0 min 0,0 km/h (0 Bft)
23.03.2010 11:04 16,2 C 11,0 C 1,4 UV-I 1,1 C 56 % 82 % 31 % 1021,6 hPa 0,0 l/m 2,0 km/h (1 Bft) 0 min 2,9 km/h (1 Bft)
23.03.2010 11:06 16,2 C 11,0 C 1,4 UV-I 1,2 C 56 % 81 % 34 % 1021,6 hPa 0,0 l/m 1,2 km/h (1 Bft) 0 min 0,0 km/h (0 Bft)
23.03.2010 11:08 16,2 C 11,1 C 1,4 UV-I 1,3 C 56 % 81 % 37 % 1021,6 hPa 0,0 l/m 1,2 km/h (1 Bft) 0 min 0,0 km/h (0 Bft)
23.03.2010 11:10 16,2 C 11,1 C 1,4 UV-I 1,4 C 56 % 81 % 40 % 1021,6 hPa 0,0 l/m 0,8 km/h (0 Bft) 0 min 3,8 km/h (1 Bft)
23.03.2010 11:12 16,2 C 11,0 C 1,4 UV-I 1,6 C 56 % 81 % 46 % 1021,6 hPa 0,0 l/m 0,8 km/h (0 Bft) 0 min 0,0 km/h (0 Bft)
23.03.2010 11:14 16,2 C 11,1 C 1,5 UV-I 1,6 C 56 % 81 % 46 % 1021,6 hPa 0,0 l/m 0,8 km/h (0 Bft) 0 min 0,0 km/h (0 Bft)
23.03.2010 11:16 16,2 C 11,1 C 1,5 UV-I 1,7 C 56 % 81 % 49 % 1021,6 hPa 0,0 l/m 0,8 km/h (0 Bft) 0 min 2,6 km/h (1 Bft)
23.03.2010 11:18 16,2 C 11,2 C 1,5 UV-I 1,6 C 56 % 81 % 46 % 1021,6 hPa 0,0 l/m 0,8 km/h (0 Bft) 0 min 3,6 km/h (1 Bft)
23.03.2010 11:20 16,2 C 11,2 C 1,3 UV-I 1,7 C 56 % 81 % 49 % 1021,6 hPa 0,0 l/m 1,2 km/h (1 Bft) 0 min 3,8 km/h (1 Bft)
23.03.2010 11:22 16,2 C 11,3 C 1,3 UV-I 1,7 C 56 % 80 % 49 % 1021,6 hPa 0,0 l/m 1,6 km/h (1 Bft) 0 min 4,1 km/h (1 Bft)
23.03.2010 11:24 16,2 C 11,2 C 1,3 UV-I 1,8 C 56 % 80 % 51 % 1021,6 hPa 0,0 l/m 2,4 km/h (1 Bft) 0 min 0,0 km/h (0 Bft)
23.03.2010 11:28 16,3 C 11,2 C 1,3 UV-I 1,9 C 56 % 80 % 54 % 1021,6 hPa 0,0 l/m 2,4 km/h (1 Bft) 0 min 4,1 km/h (1 Bft)
23.03.2010 11:30 16,3 C 11,3 C 1,3 UV-I 1,8 C 56 % 80 % 51 % 1021,6 hPa 0,0 l/m 2,4 km/h (1 Bft) 0 min 0,0 km/h (0 Bft)
23.03.2010 11:32 16,3 C 11,3 C 1,3 UV-I 1,8 C 56 % 80 % 51 % 1021,8 hPa 0,0 l/m 2,0 km/h (1 Bft) 0 min 3,8 km/h (1 Bft)
23.03.2010 11:34 16,2 C 11,3 C 1,4 UV-I 1,8 C 56 % 80 % 51 % 1021,8 hPa 0,0 l/m 2,0 km/h (1 Bft) 0 min 0,0 km/h (0 Bft)
23.03.2010 11:36 16,3 C 11,5 C 1,4 UV-I 1,7 C 56 % 80 % 49 % 1021,8 hPa 0,0 l/m 2,4 km/h (1 Bft) 0 min 3,1 km/h (1 Bft)
23.03.2010 11:38 16,2 C 11,4 C 1,4 UV-I 1,8 C 56 % 80 % 51 % 1021,8 hPa 0,0 l/m 2,8 km/h (1 Bft) 0 min 3,6 km/h (1 Bft)
23.03.2010 11:40 16,2 C 11,3 C 1,6 UV-I 1,8 C 56 % 80 % 51 % 1021,8 hPa 0,0 l/m 3,2 km/h (1 Bft) 0 min 3,6 km/h (1 Bft)
23.03.2010 11:42 16,4 C 11,4 C 1,6 UV-I 1,8 C 56 % 80 % 51 % 1021,8 hPa 0,0 l/m 3,2 km/h (1 Bft) 0 min 0,0 km/h (0 Bft)
23.03.2010 11:44 16,4 C 11,5 C 1,8 UV-I 1,7 C 56 % 80 % 49 % 1021,8 hPa 0,0 l/m 3,2 km/h (1 Bft) 0 min 2,6 km/h (1 Bft)
23.03.2010 11:46 16,4 C 11,4 C 1,8 UV-I 1,9 C 56 % 80 % 54 % 1021,8 hPa 0,0 l/m 3,2 km/h (1 Bft) 0 min 2,4 km/h (1 Bft)
23.03.2010 11:48 16,4 C 11,5 C 1,8 UV-I 1,8 C 56 % 80 % 51 % 1021,8 hPa 0,0 l/m 4,0 km/h (1 Bft) 0 min 6,0 km/h (2 Bft)
23.03.2010 11:50 16,4 C 11,6 C 2,2 UV-I 1,8 C 56 % 80 % 51 % 1021,8 hPa 0,0 l/m 3,2 km/h (1 Bft) 0 min 3,1 km/h (1 Bft)
23.03.2010 11:52 16,4 C 11,6 C 2,2 UV-I 2,1 C 56 % 80 % 60 % 1021,7 hPa 0,0 l/m 2,8 km/h (1 Bft) 0 min 2,9 km/h (1 Bft)
23.03.2010 11:54 16,4 C 11,7 C 2,6 UV-I 2,2 C 56 % 80 % 63 % 1021,7 hPa 0,0 l/m 2,4 km/h (1 Bft) 0 min 0,0 km/h (0 Bft)
23.03.2010 11:56 16,4 C 11,8 C 2,6 UV-I 2,5 C 56 % 79 % 71 % 1021,7 hPa 0,0 l/m 2,4 km/h (1 Bft) 0 min 0,0 km/h (0 Bft)
23.03.2010 11:58 16,4 C 11,9 C 2,6 UV-I 2,6 C 56 % 79 % 74 % 1021,7 hPa 0,0 l/m 1,2 km/h (1 Bft) 0 min 0,0 km/h (0 Bft)
23.03.2010 12:00 16,4 C 11,9 C 2,1 UV-I 2,8 C 56 % 79 % 80 % 1021,7 hPa 0,0 l/m 1,2 km/h (1 Bft) 0 min 0,0 km/h (0 Bft)
23.03.2010 12:02 16,4 C 11,9 C 2,1 UV-I 2,9 C 56 % 79 % 83 % 1021,7 hPa 0,0 l/m 0,8 km/h (0 Bft) 2 min 0,0 km/h (0 Bft)
23.03.2010 12:04 16,4 C 11,9 C 2,1 UV-I 2,9 C 56 % 79 % 83 % 1021,7 hPa 0,0 l/m 0,8 km/h (0 Bft) 2 min 0,0 km/h (0 Bft)
23.03.2010 12:06 16,5 C 12,0 C 2,1 UV-I 2,8 C 56 % 79 % 80 % 1021,7 hPa 0,0 l/m 0,8 km/h (0 Bft) 0 min 2,4 km/h (1 Bft)
23.03.2010 12:08 16,5 C 12,0 C 2,1 UV-I 2,8 C 56 % 79 % 80 % 1021,7 hPa 0,0 l/m 1,6 km/h (1 Bft) 0 min 2,9 km/h (1 Bft)
23.03.2010 12:10 16,5 C 12,0 C 1,6 UV-I 2,7 C 55 % 79 % 77 % 1021,7 hPa 0,0 l/m 1,6 km/h (1 Bft) 0 min 4,3 km/h (1 Bft)
23.03.2010 12:12 16,5 C 12,0 C 1,6 UV-I 2,6 C 56 % 78 % 74 % 1021,8 hPa 0,0 l/m 2,0 km/h (1 Bft) 0 min 3,6 km/h (1 Bft)
23.03.2010 12:14 16,5 C 12,1 C 2,0 UV-I 2,4 C 56 % 78 % 69 % 1021,8 hPa 0,0 l/m 3,2 km/h (1 Bft) 0 min 0,0 km/h (0 Bft)
23.03.2010 12:16 16,5 C 12,1 C 2,0 UV-I 2,4 C 55 % 78 % 69 % 1021,8 hPa 0,0 l/m 2,8 km/h (1 Bft) 0 min 0,0 km/h (0 Bft)
23.03.2010 12:18 16,5 C 12,3 C 2,0 UV-I 2,4 C 55 % 78 % 69 % 1021,8 hPa 0,0 l/m 2,4 km/h (1 Bft) 0 min 0,0 km/h (0 Bft)
23.03.2010 12:20 16,5 C 12,3 C 2,4 UV-I 2,5 C 56 % 78 % 71 % 1021,8 hPa 0,0 l/m 3,2 km/h (1 Bft) 0 min 2,9 km/h (1 Bft)
23.03.2010 12:22 16,5 C 12,2 C 2,4 UV-I 2,6 C 55 % 78 % 74 % 1021,8 hPa 0,0 l/m 3,2 km/h (1 Bft) 0 min 0,0 km/h (0 Bft)
23.03.2010 12:24 16,5 C 12,4 C 2,3 UV-I 2,6 C 55 % 78 % 74 % 1021,8 hPa 0,0 l/m 2,4 km/h (1 Bft) 0 min 4,6 km/h (1 Bft)
23.03.2010 12:30 16,6 C 12,4 C 2,1 UV-I 1,8 C 55 % 77 % 51 % 1021,8 hPa 0,0 l/m 7,2 km/h (2 Bft) 0 min 9,1 km/h (2 Bft)
23.03.2010 12:32 16,6 C 12,5 C 2,1 UV-I 1,5 C 55 % 77 % 43 % 1021,4 hPa 0,0 l/m 7,6 km/h (2 Bft) 0 min 8,7 km/h (2 Bft)
23.03.2010 12:34 16,6 C 12,5 C 2,8 UV-I 1,4 C 55 % 77 % 40 % 1021,4 hPa 0,0 l/m 8,4 km/h (2 Bft) 0 min 3,1 km/h (1 Bft)
23.03.2010 12:36 16,6 C 12,6 C 2,8 UV-I 1,3 C 55 % 77 % 37 % 1021,4 hPa 0,0 l/m 7,6 km/h (2 Bft) 0 min 7,5 km/h (2 Bft)
23.03.2010 12:38 16,6 C 12,7 C 2,8 UV-I 1,2 C 55 % 77 % 34 % 1021,4 hPa 0,0 l/m 7,6 km/h (2 Bft) 0 min 6,0 km/h (2 Bft)
23.03.2010 12:40 16,6 C 12,7 C 2,5 UV-I 1,2 C 55 % 77 % 34 % 1021,4 hPa 0,0 l/m 6,4 km/h (2 Bft) 0 min 6,0 km/h (2 Bft)
23.03.2010 12:42 16,6 C 12,6 C 2,5 UV-I 1,3 C 55 % 77 % 37 % 1021,4 hPa 0,0 l/m 6,4 km/h (2 Bft) 0 min 5,5 km/h (1 Bft)
23.03.2010 12:44 16,7 C 12,7 C 2,5 UV-I 1,3 C 55 % 77 % 37 % 1021,4 hPa 0,0 l/m 5,6 km/h (1 Bft) 0 min 10,3 km/h (2 Bft)
23.03.2010 12:46 16,7 C 12,8 C 2,5 UV-I 1,4 C 55 % 77 % 40 % 1021,4 hPa 0,0 l/m 6,0 km/h (2 Bft) 0 min 4,6 km/h (1 Bft)
23.03.2010 12:48 16,7 C 12,8 C 2,5 UV-I 1,5 C 55 % 77 % 43 % 1021,4 hPa 0,0 l/m 5,2 km/h (1 Bft) 0 min 0,0 km/h (0 Bft)
23.03.2010 12:50 16,7 C 12,9 C 3,3 UV-I 1,7 C 55 % 78 % 49 % 1021,4 hPa 0,0 l/m 4,4 km/h (1 Bft) 0 min 2,6 km/h (1 Bft)
23.03.2010 12:52 16,7 C 13,1 C 3,3 UV-I 2,3 C 55 % 78 % 66 % 1021,1 hPa 0,0 l/m 3,6 km/h (1 Bft) 0 min 4,1 km/h (1 Bft)
23.03.2010 12:54 16,8 C 13,2 C 8,3 UV-I 3,2 C 55 % 78 % 91 % 1021,1 hPa 0,0 l/m 2,8 km/h (1 Bft) 2 min 0,0 km/h (0 Bft)
23.03.2010 12:56 16,8 C 13,3 C 8,3 UV-I 4,3 C 55 % 78 % 100 % 1021,1 hPa 0,0 l/m 2,4 km/h (1 Bft) 2 min 6,5 km/h (2 Bft)
23.03.2010 12:58 16,8 C 13,5 C 8,3 UV-I 4,8 C 56 % 77 % 100 % 1021,1 hPa 0,0 l/m 2,0 km/h (1 Bft) 2 min 7,0 km/h (2 Bft)
23.03.2010 13:00 16,8 C 13,6 C 6,0 UV-I 4,6 C 55 % 76 % 100 % 1021,1 hPa 0,0 l/m 3,2 km/h (1 Bft) 2 min 7,0 km/h (2 Bft)
23.03.2010 13:02 16,9 C 13,7 C 6,0 UV-I 4,4 C 55 % 76 % 100 % 1021,1 hPa 0,0 l/m 4,8 km/h (1 Bft) 2 min 7,2 km/h (2 Bft)
23.03.2010 13:04 17,0 C 13,9 C 8,8 UV-I 4,4 C 55 % 76 % 100 % 1021,1 hPa 0,0 l/m 6,0 km/h (2 Bft) 2 min 7,5 km/h (2 Bft)
23.03.2010 13:06 17,1 C 13,9 C 8,8 UV-I 4,6 C 55 % 75 % 100 % 1021,1 hPa 0,0 l/m 6,4 km/h (2 Bft) 2 min 0,0 km/h (0 Bft)
23.03.2010 13:08 17,2 C 14,0 C 8,8 UV-I 5,1 C 55 % 75 % 100 % 1021,1 hPa 0,0 l/m 6,0 km/h (2 Bft) 2 min 2,4 km/h (1 Bft)
23.03.2010 13:10 17,3 C 14,1 C 9,4 UV-I 5,7 C 55 % 74 % 100 % 1021,1 hPa 0,0 l/m 5,2 km/h (1 Bft) 2 min 5,3 km/h (1 Bft)
23.03.2010 13:12 17,4 C 14,2 C 9,4 UV-I 6,4 C 55 % 74 % 100 % 1021,9 hPa 0,0 l/m 6,0 km/h (2 Bft) 2 min 14,2 km/h (3 Bft)
23.03.2010 13:14 17,4 C 14,4 C 9,9 UV-I 6,2 C 55 % 74 % 100 % 1021,9 hPa 0,0 l/m 6,4 km/h (2 Bft) 2 min 5,5 km/h (1 Bft)
23.03.2010 13:18 17,6 C 14,6 C 9,9 UV-I 5,9 C 54 % 70 % 100 % 1021,9 hPa 0,0 l/m 8,4 km/h (2 Bft) 2 min 8,2 km/h (2 Bft)
23.03.2010 13:20 17,7 C 14,5 C 6,3 UV-I 5,4 C 54 % 70 % 100 % 1021,9 hPa 0,0 l/m 8,8 km/h (2 Bft) 2 min 14,2 km/h (3 Bft)
23.03.2010 13:22 17,8 C 14,5 C 6,3 UV-I 5,3 C 54 % 71 % 100 % 1021,9 hPa 0,0 l/m 8,4 km/h (2 Bft) 2 min 5,5 km/h (1 Bft)
23.03.2010 13:24 17,8 C 14,6 C 5,4 UV-I 5,2 C 54 % 71 % 100 % 1021,9 hPa 0,0 l/m 6,4 km/h (2 Bft) 2 min 5,1 km/h (1 Bft)
23.03.2010 13:26 17,8 C 14,6 C 5,4 UV-I 4,7 C 54 % 71 % 100 % 1021,9 hPa 0,0 l/m 5,2 km/h (1 Bft) 2 min 3,6 km/h (1 Bft)
23.03.2010 13:30 17,9 C 14,6 C 2,9 UV-I 4,0 C 53 % 70 % 100 % 1021,9 hPa 0,0 l/m 3,2 km/h (1 Bft) 2 min 5,8 km/h (2 Bft)
23.03.2010 13:32 17,9 C 14,7 C 2,9 UV-I 3,5 C 53 % 69 % 100 % 1022,0 hPa 0,0 l/m 3,2 km/h (1 Bft) 2 min 4,3 km/h (1 Bft)
23.03.2010 13:34 18,0 C 14,7 C 2,8 UV-I 3,0 C 53 % 69 % 86 % 1022,0 hPa 0,0 l/m 2,8 km/h (1 Bft) 2 min 0,0 km/h (0 Bft)
23.03.2010 13:36 18,0 C 14,7 C 2,8 UV-I 2,6 C 53 % 70 % 74 % 1022,0 hPa 0,0 l/m 2,0 km/h (1 Bft) 0 min 0,0 km/h (0 Bft)
23.03.2010 13:38 18,0 C 14,6 C 2,8 UV-I 2,5 C 53 % 70 % 71 % 1022,0 hPa 0,0 l/m 1,6 km/h (1 Bft) 0 min 0,0 km/h (0 Bft)
23.03.2010 13:40 18,0 C 14,7 C 3,4 UV-I 2,3 C 53 % 69 % 66 % 1022,0 hPa 0,0 l/m 1,2 km/h (1 Bft) 0 min 3,6 km/h (1 Bft)
23.03.2010 13:42 18,0 C 14,7 C 3,4 UV-I 2,4 C 53 % 69 % 69 % 1022,0 hPa 0,0 l/m 1,2 km/h (1 Bft) 0 min 2,4 km/h (1 Bft)
23.03.2010 13:44 18,0 C 14,8 C 6,2 UV-I 2,7 C 53 % 69 % 77 % 1022,0 hPa 0,0 l/m 0,8 km/h (0 Bft) 0 min 3,8 km/h (1 Bft)
23.03.2010 13:46 18,1 C 14,8 C 6,2 UV-I 3,3 C 53 % 69 % 94 % 1022,0 hPa 0,0 l/m 2,0 km/h (1 Bft) 2 min 4,8 km/h (1 Bft)
23.03.2010 13:48 18,1 C 14,8 C 6,2 UV-I 3,5 C 53 % 69 % 100 % 1022,0 hPa 0,0 l/m 2,4 km/h (1 Bft) 2 min 0,0 km/h (0 Bft)
23.03.2010 13:50 18,2 C 14,9 C 4,1 UV-I 3,4 C 53 % 69 % 97 % 1022,0 hPa 0,0 l/m 2,8 km/h (1 Bft) 2 min 4,8 km/h (1 Bft)
23.03.2010 13:52 18,2 C 14,9 C 4,1 UV-I 3,3 C 52 % 69 % 94 % 1022,2 hPa 0,0 l/m 3,2 km/h (1 Bft) 2 min 3,4 km/h (1 Bft)
23.03.2010 13:54 18,2 C 14,8 C 3,2 UV-I 3,1 C 52 % 69 % 89 % 1022,2 hPa 0,0 l/m 3,6 km/h (1 Bft) 2 min 0,0 km/h (0 Bft)
23.03.2010 13:56 18,2 C 14,8 C 3,2 UV-I 2,8 C 52 % 69 % 80 % 1022,2 hPa 0,0 l/m 2,8 km/h (1 Bft) 0 min 0,0 km/h (0 Bft)
23.03.2010 13:58 18,2 C 14,9 C 3,2 UV-I 2,7 C 52 % 69 % 77 % 1022,2 hPa 0,0 l/m 2,0 km/h (1 Bft) 0 min 3,6 km/h (1 Bft)
23.03.2010 14:00 18,2 C 14,9 C 4,7 UV-I 2,8 C 52 % 69 % 80 % 1022,2 hPa 0,0 l/m 2,0 km/h (1 Bft) 0 min 2,4 km/h (1 Bft)
23.03.2010 14:02 18,2 C 14,9 C 4,7 UV-I 3,0 C 52 % 69 % 86 % 1022,2 hPa 0,0 l/m 1,6 km/h (1 Bft) 2 min 4,6 km/h (1 Bft)
23.03.2010 14:04 18,2 C 15,0 C 3,2 UV-I 3,0 C 52 % 68 % 86 % 1022,2 hPa 0,0 l/m 2,0 km/h (1 Bft) 2 min 4,6 km/h (1 Bft)
23.03.2010 14:06 18,3 C 15,0 C 3,2 UV-I 2,9 C 52 % 68 % 83 % 1022,2 hPa 0,0 l/m 2,0 km/h (1 Bft) 2 min 0,0 km/h (0 Bft)
23.03.2010 14:08 18,3 C 15,0 C 3,2 UV-I 2,6 C 52 % 69 % 74 % 1022,2 hPa 0,0 l/m 2,0 km/h (1 Bft) 0 min 0,0 km/h (0 Bft)
23.03.2010 14:10 18,3 C 15,1 C 1,7 UV-I 2,3 C 52 % 69 % 66 % 1022,2 hPa 0,0 l/m 2,0 km/h (1 Bft) 0 min 2,9 km/h (1 Bft)
23.03.2010 14:12 18,2 C 15,1 C 1,7 UV-I 2,1 C 52 % 68 % 60 % 1021,5 hPa 0,0 l/m 2,4 km/h (1 Bft) 0 min 2,6 km/h (1 Bft)
23.03.2010 14:14 18,3 C 15,0 C 1,4 UV-I 1,9 C 52 % 69 % 54 % 1021,5 hPa 0,0 l/m 1,6 km/h (1 Bft) 0 min 0,0 km/h (0 Bft)
23.03.2010 14:18 18,2 C 15,1 C 1,4 UV-I 1,2 C 52 % 69 % 34 % 1021,5 hPa 0,0 l/m 1,6 km/h (1 Bft) 0 min 3,6 km/h (1 Bft)
23.03.2010 14:20 18,2 C 15,1 C 1,4 UV-I 1,0 C 52 % 69 % 29 % 1021,5 hPa 0,0 l/m 1,6 km/h (1 Bft) 0 min 2,4 km/h (1 Bft)
23.03.2010 14:22 18,2 C 14,9 C 1,4 UV-I 1,2 C 52 % 69 % 34 % 1021,5 hPa 0,0 l/m 1,2 km/h (1 Bft) 0 min 0,0 km/h (0 Bft)
23.03.2010 14:24 18,2 C 14,9 C 1,4 UV-I 1,2 C 52 % 69 % 34 % 1021,5 hPa 0,0 l/m 0,8 km/h (0 Bft) 0 min 0,0 km/h (0 Bft)
23.03.2010 14:26 18,2 C 15,0 C 1,4 UV-I 1,1 C 52 % 69 % 31 % 1021,5 hPa 0,0 l/m 0,4 km/h (0 Bft) 0 min 0,0 km/h (0 Bft)
23.03.2010 14:28 18,2 C 15,0 C 1,4 UV-I 1,1 C 52 % 69 % 31 % 1021,5 hPa 0,0 l/m 0,0 km/h (0 Bft) 0 min 0,0 km/h (0 Bft)
23.03.2010 14:30 18,2 C 14,9 C 1,1 UV-I 1,2 C 52 % 69 % 34 % 1021,5 hPa 0,0 l/m 0,0 km/h (0 Bft) 0 min 0,0 km/h (0 Bft)
23.03.2010 14:32 18,2 C 15,0 C 1,1 UV-I 1,2 C 52 % 69 % 34 % 1020,7 hPa 0,0 l/m 0,0 km/h (0 Bft) 0 min 0,0 km/h (0 Bft)
23.03.2010 14:34 18,1 C 15,0 C 2,0 UV-I 1,2 C 52 % 69 % 34 % 1020,7 hPa 0,0 l/m 0,0 km/h (0 Bft) 0 min 0,0 km/h (0 Bft)
23.03.2010 14:36 18,1 C 15,1 C 2,0 UV-I 1,2 C 52 % 69 % 34 % 1020,7 hPa 0,0 l/m 0,0 km/h (0 Bft) 0 min 0,0 km/h (0 Bft)
23.03.2010 14:38 18,2 C 15,0 C 2,0 UV-I 1,5 C 52 % 69 % 43 % 1020,7 hPa 0,0 l/m 0,0 km/h (0 Bft) 0 min 0,0 km/h (0 Bft)
23.03.2010 14:40 18,2 C 15,1 C 4,7 UV-I 1,8 C 52 % 69 % 51 % 1020,7 hPa 0,0 l/m 0,4 km/h (0 Bft) 0 min 0,0 km/h (0 Bft)
23.03.2010 14:42 18,2 C 15,1 C 4,7 UV-I 2,7 C 52 % 68 % 77 % 1020,7 hPa 0,0 l/m 0,4 km/h (0 Bft) 0 min 0,0 km/h (0 Bft)
23.03.2010 14:44 18,2 C 15,1 C 7,6 UV-I 3,5 C 52 % 67 % 100 % 1020,7 hPa 0,0 l/m 0,8 km/h (0 Bft) 2 min 3,4 km/h (1 Bft)
23.03.2010 14:46 18,3 C 15,2 C 7,6 UV-I 4,1 C 52 % 67 % 100 % 1020,7 hPa 0,0 l/m 2,0 km/h (1 Bft) 2 min 6,5 km/h (2 Bft)
23.03.2010 14:48 18,4 C 15,3 C 7,6 UV-I 4,8 C 52 % 67 % 100 % 1020,7 hPa 0,0 l/m 3,6 km/h (1 Bft) 2 min 5,3 km/h (1 Bft)
23.03.2010 14:50 18,4 C 15,3 C 10,3 UV-I 5,3 C 52 % 68 % 100 % 1020,7 hPa 0,0 l/m 3,6 km/h (1 Bft) 2 min 0,0 km/h (0 Bft)
23.03.2010 14:52 18,5 C 15,5 C 10,3 UV-I 6,1 C 52 % 67 % 100 % 1022,3 hPa 0,0 l/m 4,8 km/h (1 Bft) 2 min 5,5 km/h (1 Bft)
23.03.2010 14:54 18,6 C 15,6 C 10,3 UV-I 6,6 C 52 % 66 % 100 % 1022,3 hPa 0,0 l/m 5,6 km/h (1 Bft) 2 min 4,8 km/h (1 Bft)
23.03.2010 14:56 18,7 C 15,7 C 10,3 UV-I 6,8 C 52 % 66 % 100 % 1022,3 hPa 0,0 l/m 4,8 km/h (1 Bft) 2 min 0,0 km/h (0 Bft)
23.03.2010 14:58 18,8 C 15,9 C 10,3 UV-I 7,0 C 52 % 67 % 100 % 1022,3 hPa 0,0 l/m 3,2 km/h (1 Bft) 2 min 4,3 km/h (1 Bft)
23.03.2010 15:00 18,8 C 15,9 C 10,3 UV-I 7,4 C 52 % 67 % 100 % 1022,3 hPa 0,0 l/m 2,4 km/h (1 Bft) 2 min 2,4 km/h (1 Bft)
23.03.2010 15:02 18,9 C 16,1 C 10,3 UV-I 7,4 C 51 % 66 % 100 % 1022,3 hPa 0,0 l/m 2,8 km/h (1 Bft) 2 min 5,3 km/h (1 Bft)
23.03.2010 15:04 18,9 C 16,0 C 3,8 UV-I 6,9 C 51 % 65 % 100 % 1022,3 hPa 0,0 l/m 3,2 km/h (1 Bft) 2 min 4,6 km/h (1 Bft)
23.03.2010 15:06 18,9 C 16,0 C 3,8 UV-I 6,0 C 51 % 64 % 100 % 1022,3 hPa 0,0 l/m 2,8 km/h (1 Bft) 2 min 3,4 km/h (1 Bft)
23.03.2010 15:08 18,9 C 16,0 C 3,8 UV-I 4,8 C 51 % 64 % 100 % 1022,3 hPa 0,0 l/m 3,2 km/h (1 Bft) 2 min 4,3 km/h (1 Bft)
23.03.2010 15:10 18,9 C 15,9 C 1,9 UV-I 4,2 C 50 % 64 % 100 % 1022,3 hPa 0,0 l/m 4,0 km/h (1 Bft) 2 min 3,4 km/h (1 Bft)
23.03.2010 15:12 18,9 C 15,9 C 1,9 UV-I 3,7 C 50 % 63 % 100 % 1022,4 hPa 0,0 l/m 4,4 km/h (1 Bft) 2 min 5,5 km/h (1 Bft)
23.03.2010 15:14 18,9 C 15,9 C 1,5 UV-I 3,0 C 50 % 63 % 86 % 1022,4 hPa 0,0 l/m 3,6 km/h (1 Bft) 2 min 4,1 km/h (1 Bft)
23.03.2010 15:16 18,8 C 15,9 C 1,5 UV-I 2,5 C 50 % 63 % 71 % 1022,4 hPa 0,0 l/m 3,2 km/h (1 Bft) 0 min 2,9 km/h (1 Bft)
23.03.2010 15:18 18,8 C 15,9 C 1,5 UV-I 2,3 C 50 % 63 % 66 % 1022,4 hPa 0,0 l/m 3,2 km/h (1 Bft) 0 min 2,6 km/h (1 Bft)
23.03.2010 15:22 18,8 C 15,9 C 2,0 UV-I 1,9 C 50 % 63 % 54 % 1022,4 hPa 0,0 l/m 2,8 km/h (1 Bft) 0 min 3,1 km/h (1 Bft)
23.03.2010 15:26 18,8 C 15,8 C 2,7 UV-I 1,9 C 50 % 63 % 54 % 1022,4 hPa 0,0 l/m 1,6 km/h (1 Bft) 0 min 4,6 km/h (1 Bft)
23.03.2010 15:28 18,8 C 15,8 C 2,7 UV-I 2,0 C 50 % 63 % 57 % 1022,4 hPa 0,0 l/m 1,6 km/h (1 Bft) 0 min 0,0 km/h (0 Bft)
23.03.2010 15:30 18,8 C 15,8 C 1,4 UV-I 1,8 C 50 % 63 % 51 % 1022,4 hPa 0,0 l/m 1,2 km/h (1 Bft) 0 min 0,0 km/h (0 Bft)
23.03.2010 15:32 18,8 C 15,9 C 1,4 UV-I 1,6 C 50 % 63 % 46 % 1020,8 hPa 0,0 l/m 1,2 km/h (1 Bft) 0 min 2,6 km/h (1 Bft)
23.03.2010 15:34 18,8 C 15,9 C 2,5 UV-I 1,5 C 50 % 63 % 43 % 1020,8 hPa 0,0 l/m 0,8 km/h (0 Bft) 0 min 0,0 km/h (0 Bft)
23.03.2010 15:36 18,8 C 16,0 C 2,5 UV-I 1,4 C 50 % 63 % 40 % 1020,8 hPa 0,0 l/m 0,8 km/h (0 Bft) 0 min 0,0 km/h (0 Bft)
23.03.2010 15:38 18,8 C 16,1 C 2,5 UV-I 1,7 C 50 % 63 % 49 % 1020,8 hPa 0,0 l/m 0,4 km/h (0 Bft) 0 min 0,0 km/h (0 Bft)
23.03.2010 15:40 18,8 C 16,0 C 4,2 UV-I 2,2 C 50 % 63 % 63 % 1020,8 hPa 0,0 l/m 0,4 km/h (0 Bft) 0 min 3,1 km/h (1 Bft)
23.03.2010 15:42 18,8 C 16,0 C 4,2 UV-I 2,9 C 50 % 63 % 83 % 1020,8 hPa 0,0 l/m 0,8 km/h (0 Bft) 2 min 2,9 km/h (1 Bft)
23.03.2010 15:44 18,8 C 16,1 C 3,2 UV-I 3,0 C 50 % 63 % 86 % 1020,8 hPa 0,0 l/m 0,8 km/h (0 Bft) 2 min 3,1 km/h (1 Bft)
23.03.2010 15:46 18,8 C 16,1 C 3,2 UV-I 2,9 C 50 % 63 % 83 % 1020,8 hPa 0,0 l/m 0,8 km/h (0 Bft) 2 min 3,1 km/h (1 Bft)
23.03.2010 15:48 18,8 C 16,1 C 3,2 UV-I 2,6 C 50 % 63 % 74 % 1020,8 hPa 0,0 l/m 0,8 km/h (0 Bft) 0 min 0,0 km/h (0 Bft)
23.03.2010 15:50 18,8 C 16,1 C 1,0 UV-I 2,3 C 50 % 63 % 66 % 1020,8 hPa 0,0 l/m 0,8 km/h (0 Bft) 0 min 0,0 km/h (0 Bft)
23.03.2010 15:52 18,8 C 16,1 C 1,0 UV-I 1,9 C 50 % 63 % 54 % 1020,6 hPa 0,0 l/m 0,8 km/h (0 Bft) 0 min 2,4 km/h (1 Bft)
23.03.2010 15:54 18,8 C 16,0 C 0,6 UV-I 1,7 C 50 % 63 % 49 % 1020,6 hPa 0,0 l/m 0,8 km/h (0 Bft) 0 min 2,4 km/h (1 Bft)
23.03.2010 15:56 18,8 C 16,0 C 0,6 UV-I 1,4 C 50 % 63 % 40 % 1020,6 hPa 0,0 l/m 0,8 km/h (0 Bft) 0 min 0,0 km/h (0 Bft)
23.03.2010 15:58 18,8 C 16,0 C 0,6 UV-I 1,3 C 50 % 63 % 37 % 1020,6 hPa 0,0 l/m 0,4 km/h (0 Bft) 0 min 0,0 km/h (0 Bft)
23.03.2010 16:00 18,8 C 16,0 C 0,7 UV-I 1,2 C 50 % 63 % 34 % 1020,6 hPa 0,0 l/m 0,4 km/h (0 Bft) 0 min 0,0 km/h (0 Bft)
23.03.2010 16:04 18,7 C 16,0 C 0,6 UV-I 1,0 C 50 % 63 % 29 % 1020,6 hPa 0,0 l/m 0,4 km/h (0 Bft) 0 min 0,0 km/h (0 Bft)
23.03.2010 16:06 18,7 C 15,9 C 0,6 UV-I 1,0 C 50 % 63 % 29 % 1020,6 hPa 0,0 l/m 0,0 km/h (0 Bft) 0 min 0,0 km/h (0 Bft)
23.03.2010 16:08 18,7 C 15,9 C 0,6 UV-I 0,8 C 50 % 63 % 23 % 1020,6 hPa 0,0 l/m 0,4 km/h (0 Bft) 0 min 2,4 km/h (1 Bft)
23.03.2010 16:10 18,7 C 15,9 C 0,2 UV-I 0,7 C 50 % 63 % 20 % 1020,6 hPa 0,0 l/m 0,4 km/h (0 Bft) 0 min 2,6 km/h (1 Bft)
23.03.2010 16:12 18,7 C 15,9 C 0,2 UV-I 0,6 C 50 % 63 % 17 % 1019,9 hPa 0,0 l/m 0,4 km/h (0 Bft) 0 min 0,0 km/h (0 Bft)
23.03.2010 16:14 18,6 C 15,9 C 0,6 UV-I 0,5 C 50 % 64 % 14 % 1019,9 hPa 0,0 l/m 0,4 km/h (0 Bft) 0 min 0,0 km/h (0 Bft)
23.03.2010 16:16 18,6 C 15,9 C 0,6 UV-I 0,4 C 50 % 64 % 11 % 1019,9 hPa 0,0 l/m 1,6 km/h (1 Bft) 0 min 4,3 km/h (1 Bft)
23.03.2010 16:18 18,6 C 15,9 C 0,6 UV-I 0,3 C 50 % 64 % 9 % 1019,9 hPa 0,0 l/m 2,4 km/h (1 Bft) 0 min 0,0 km/h (0 Bft)
23.03.2010 16:20 18,6 C 15,8 C 0,6 UV-I 0,3 C 50 % 64 % 9 % 1019,9 hPa 0,0 l/m 2,0 km/h (1 Bft) 0 min 0,0 km/h (0 Bft)
23.03.2010 16:22 18,6 C 15,8 C 0,6 UV-I 0,2 C 50 % 64 % 6 % 1019,9 hPa 0,0 l/m 2,0 km/h (1 Bft) 0 min 2,6 km/h (1 Bft)
23.03.2010 16:24 18,6 C 15,8 C 0,6 UV-I 0,2 C 50 % 64 % 6 % 1019,9 hPa 0,0 l/m 2,0 km/h (1 Bft) 0 min 0,0 km/h (0 Bft)
23.03.2010 16:26 18,6 C 15,8 C 0,6 UV-I 0,1 C 50 % 64 % 3 % 1019,9 hPa 0,0 l/m 1,6 km/h (1 Bft) 0 min 0,0 km/h (0 Bft)
23.03.2010 16:28 18,5 C 15,9 C 0,6 UV-I 0,0 C 50 % 64 % 0 % 1019,9 hPa 0,0 l/m 0,0 km/h (0 Bft) 0 min 0,0 km/h (0 Bft)
23.03.2010 16:30 18,6 C 15,9 C 0,5 UV-I 0,0 C 50 % 64 % 0 % 1019,9 hPa 0,0 l/m 0,0 km/h (0 Bft) 0 min 0,0 km/h (0 Bft)
23.03.2010 16:32 18,6 C 15,9 C 0,5 UV-I 0,1 C 50 % 65 % 3 % 1019,7 hPa 0,0 l/m 0,0 km/h (0 Bft) 0 min 0,0 km/h (0 Bft)
23.03.2010 16:36 18,6 C 15,8 C 0,6 UV-I 0,3 C 51 % 64 % 9 % 1019,7 hPa 0,0 l/m 0,4 km/h (0 Bft) 0 min 3,6 km/h (1 Bft)
23.03.2010 16:38 18,5 C 15,7 C 0,6 UV-I 0,4 C 51 % 65 % 11 % 1019,7 hPa 0,0 l/m 0,4 km/h (0 Bft) 0 min 0,0 km/h (0 Bft)
23.03.2010 16:40 18,5 C 15,7 C 0,5 UV-I 0,6 C 51 % 65 % 17 % 1019,7 hPa 0,0 l/m 0,8 km/h (0 Bft) 0 min 2,9 km/h (1 Bft)
23.03.2010 16:42 18,5 C 15,8 C 0,5 UV-I 1,0 C 51 % 65 % 29 % 1019,7 hPa 0,0 l/m 0,8 km/h (0 Bft) 0 min 0,0 km/h (0 Bft)
23.03.2010 16:44 18,5 C 15,9 C 0,4 UV-I 1,4 C 51 % 65 % 40 % 1019,7 hPa 0,0 l/m 0,8 km/h (0 Bft) 0 min 0,0 km/h (0 Bft)
23.03.2010 16:46 18,6 C 15,9 C 0,4 UV-I 1,7 C 51 % 65 % 49 % 1019,7 hPa 0,0 l/m 0,8 km/h (0 Bft) 0 min 2,4 km/h (1 Bft)
23.03.2010 16:48 18,6 C 16,0 C 0,4 UV-I 1,8 C 51 % 65 % 51 % 1019,7 hPa 0,0 l/m 0,8 km/h (0 Bft) 0 min 2,4 km/h (1 Bft)
23.03.2010 16:50 18,6 C 16,0 C 0,4 UV-I 1,9 C 51 % 65 % 54 % 1019,7 hPa 0,0 l/m 2,0 km/h (1 Bft) 0 min 5,1 km/h (1 Bft)
23.03.2010 16:52 18,6 C 16,1 C 0,4 UV-I 1,8 C 51 % 64 % 51 % 1019,6 hPa 0,0 l/m 2,4 km/h (1 Bft) 0 min 5,3 km/h (1 Bft)
23.03.2010 16:54 18,6 C 16,0 C 0,4 UV-I 1,8 C 51 % 65 % 51 % 1019,6 hPa 0,0 l/m 2,4 km/h (1 Bft) 0 min 3,1 km/h (1 Bft)
23.03.2010 16:56 18,5 C 16,1 C 0,4 UV-I 1,8 C 51 % 65 % 51 % 1019,6 hPa 0,0 l/m 2,8 km/h (1 Bft) 0 min 2,4 km/h (1 Bft)
23.03.2010 16:58 18,6 C 16,1 C 0,4 UV-I 1,7 C 51 % 65 % 49 % 1019,6 hPa 0,0 l/m 2,8 km/h (1 Bft) 0 min 0,0 km/h (0 Bft)
23.03.2010 17:00 18,5 C 16,0 C 0,4 UV-I 1,6 C 51 % 65 % 46 % 1019,6 hPa 0,0 l/m 3,2 km/h (1 Bft) 0 min 2,6 km/h (1 Bft)
23.03.2010 17:02 18,6 C 16,0 C 0,4 UV-I 1,4 C 51 % 65 % 40 % 1019,6 hPa 0,0 l/m 2,8 km/h (1 Bft) 0 min 2,6 km/h (1 Bft)
23.03.2010 17:04 18,5 C 16,0 C 0,3 UV-I 1,0 C 51 % 65 % 29 % 1019,6 hPa 0,0 l/m 2,8 km/h (1 Bft) 0 min 2,4 km/h (1 Bft)
23.03.2010 17:06 18,5 C 16,1 C 0,3 UV-I 0,6 C 51 % 65 % 17 % 1019,6 hPa 0,0 l/m 2,4 km/h (1 Bft) 0 min 3,4 km/h (1 Bft)
23.03.2010 17:08 18,5 C 15,9 C 0,3 UV-I 0,7 C 51 % 65 % 20 % 1019,6 hPa 0,0 l/m 2,4 km/h (1 Bft) 0 min 0,0 km/h (0 Bft)
23.03.2010 17:10 18,5 C 15,9 C 0,7 UV-I 0,4 C 51 % 65 % 11 % 1019,6 hPa 0,0 l/m 2,8 km/h (1 Bft) 0 min 3,1 km/h (1 Bft)
23.03.2010 17:12 18,5 C 15,9 C 0,7 UV-I 0,2 C 51 % 65 % 6 % 1019,3 hPa 0,0 l/m 1,6 km/h (1 Bft) 0 min 0,0 km/h (0 Bft)
23.03.2010 17:14 18,5 C 15,8 C 0,3 UV-I 0,3 C 51 % 65 % 9 % 1019,3 hPa 0,0 l/m 1,2 km/h (1 Bft) 0 min 0,0 km/h (0 Bft)
23.03.2010 17:16 18,5 C 15,9 C 0,3 UV-I 0,1 C 51 % 65 % 3 % 1019,3 hPa 0,0 l/m 1,2 km/h (1 Bft) 0 min 0,0 km/h (0 Bft)
23.03.2010 17:18 18,5 C 15,7 C 0,3 UV-I 0,3 C 51 % 66 % 9 % 1019,3 hPa 0,0 l/m 1,2 km/h (1 Bft) 0 min 0,0 km/h (0 Bft)
23.03.2010 17:20 18,5 C 15,8 C 0,4 UV-I 0,3 C 51 % 66 % 9 % 1019,3 hPa 0,0 l/m 0,8 km/h (0 Bft) 0 min 2,6 km/h (1 Bft)
23.03.2010 17:22 18,5 C 15,7 C 0,4 UV-I 0,3 C 51 % 66 % 9 % 1019,3 hPa 0,0 l/m 0,4 km/h (0 Bft) 0 min 2,6 km/h (1 Bft)
23.03.2010 17:24 18,5 C 15,7 C 0,2 UV-I 0,3 C 51 % 65 % 9 % 1019,3 hPa 0,0 l/m 0,4 km/h (0 Bft) 0 min 0,0 km/h (0 Bft)
23.03.2010 17:26 18,5 C 15,6 C 0,2 UV-I 0,4 C 51 % 65 % 11 % 1019,3 hPa 0,0 l/m 0,4 km/h (0 Bft) 0 min 0,0 km/h (0 Bft)
23.03.2010 17:28 18,5 C 15,7 C 0,2 UV-I 0,5 C 51 % 66 % 14 % 1019,3 hPa 0,0 l/m 0,4 km/h (0 Bft) 0 min 0,0 km/h (0 Bft)
23.03.2010 17:30 18,5 C 15,7 C 0,1 UV-I 0,6 C 51 % 65 % 17 % 1019,3 hPa 0,0 l/m 0,8 km/h (0 Bft) 0 min 2,4 km/h (1 Bft)
23.03.2010 17:32 18,4 C 15,6 C 0,1 UV-I 0,8 C 51 % 66 % 23 % 1019,1 hPa 0,0 l/m 0,4 km/h (0 Bft) 0 min 0,0 km/h (0 Bft)
23.03.2010 17:34 18,4 C 15,6 C 0,0 UV-I 0,9 C 51 % 66 % 26 % 1019,1 hPa 0,0 l/m 0,4 km/h (0 Bft) 0 min 0,0 km/h (0 Bft)
23.03.2010 17:36 18,4 C 15,6 C 0,0 UV-I 0,8 C 51 % 66 % 23 % 1019,1 hPa 0,0 l/m 0,4 km/h (0 Bft) 0 min 0,0 km/h (0 Bft)
23.03.2010 17:38 18,4 C 15,5 C 0,0 UV-I 0,7 C 51 % 66 % 20 % 1019,1 hPa 0,0 l/m 0,8 km/h (0 Bft) 0 min 0,0 km/h (0 Bft)
23.03.2010 17:40 18,4 C 15,5 C 0,0 UV-I 0,7 C 51 % 66 % 20 % 1019,1 hPa 0,0 l/m 0,8 km/h (0 Bft) 0 min 4,6 km/h (1 Bft)
23.03.2010 17:42 18,4 C 15,5 C 0,0 UV-I 0,5 C 51 % 66 % 14 % 1019,1 hPa 0,0 l/m 0,8 km/h (0 Bft) 0 min 0,0 km/h (0 Bft)
23.03.2010 17:44 18,4 C 15,5 C 0,0 UV-I 0,2 C 51 % 66 % 6 % 1019,1 hPa 0,0 l/m 1,2 km/h (1 Bft) 0 min 5,5 km/h (1 Bft)
23.03.2010 17:46 18,4 C 15,4 C 0,0 UV-I 0,1 C 51 % 66 % 3 % 1019,1 hPa 0,0 l/m 1,6 km/h (1 Bft) 0 min 0,0 km/h (0 Bft)
23.03.2010 17:48 18,4 C 15,3 C 0,0 UV-I 0,0 C 51 % 66 % 0 % 1019,1 hPa 0,0 l/m 1,2 km/h (1 Bft) 0 min 0,0 km/h (0 Bft)
23.03.2010 17:50 18,4 C 15,3 C 0,0 UV-I 0,0 C 51 % 66 % 0 % 1019,1 hPa 0,0 l/m 1,6 km/h (1 Bft) 0 min 4,3 km/h (1 Bft)
23.03.2010 17:52 18,4 C 15,3 C 0,0 UV-I 0,0 C 51 % 66 % 0 % 1018,9 hPa 0,0 l/m 1,6 km/h (1 Bft) 0 min 2,9 km/h (1 Bft)
23.03.2010 17:56 18,2 C 15,1 C 0,0 UV-I 0,0 C 51 % 67 % 0 % 1018,9 hPa 0,0 l/m 0,8 km/h (0 Bft) 0 min 0,0 km/h (0 Bft)
23.03.2010 17:58 18,2 C 15,0 C 0,0 UV-I 0,0 C 51 % 67 % 0 % 1018,9 hPa 0,0 l/m 0,8 km/h (0 Bft) 0 min 3,4 km/h (1 Bft)
23.03.2010 18:00 18,3 C 15,0 C 0,0 UV-I 0,0 C 51 % 67 % 0 % 1018,9 hPa 0,0 l/m 1,2 km/h (1 Bft) 0 min 0,0 km/h (0 Bft)
23.03.2010 18:02 18,3 C 15,0 C 0,0 UV-I 0,0 C 51 % 67 % 0 % 1018,9 hPa 0,0 l/m 0,4 km/h (0 Bft) 0 min 0,0 km/h (0 Bft)
23.03.2010 18:06 18,2 C 14,8 C 0,0 UV-I 0,0 C 51 % 68 % 0 % 1018,9 hPa 0,0 l/m 0,4 km/h (0 Bft) 0 min 0,0 km/h (0 Bft)
23.03.2010 18:08 18,2 C 14,8 C 0,0 UV-I 0,0 C 51 % 68 % 0 % 1018,9 hPa 0,0 l/m 0,4 km/h (0 Bft) 0 min 0,0 km/h (0 Bft)
23.03.2010 18:10 18,2 C 14,8 C 0,0 UV-I 0,0 C 51 % 68 % 0 % 1018,9 hPa 0,0 l/m 0,0 km/h (0 Bft) 0 min 0,0 km/h (0 Bft)
23.03.2010 18:12 18,2 C 14,7 C 0,0 UV-I 0,0 C 51 % 68 % 0 % 1018,4 hPa 0,0 l/m 0,0 km/h (0 Bft) 0 min 0,0 km/h (0 Bft)
23.03.2010 18:14 18,2 C 14,7 C 0,0 UV-I 0,0 C 51 % 68 % 0 % 1018,4 hPa 0,0 l/m 0,4 km/h (0 Bft) 0 min 4,3 km/h (1 Bft)
23.03.2010 18:16 18,2 C 14,5 C 0,0 UV-I 0,0 C 51 % 69 % 0 % 1018,4 hPa 0,0 l/m 0,4 km/h (0 Bft) 0 min 0,0 km/h (0 Bft)
23.03.2010 18:18 18,1 C 14,4 C 0,0 UV-I 0,0 C 51 % 68 % 0 % 1018,4 hPa 0,0 l/m 0,4 km/h (0 Bft) 0 min 0,0 km/h (0 Bft)
23.03.2010 18:22 18,1 C 14,3 C 0,0 UV-I 0,0 C 51 % 68 % 0 % 1018,4 hPa 0,0 l/m 0,8 km/h (0 Bft) 0 min 2,4 km/h (1 Bft)
23.03.2010 18:24 18,1 C 14,3 C 0,0 UV-I 0,0 C 52 % 69 % 0 % 1018,4 hPa 0,0 l/m 0,8 km/h (0 Bft) 0 min 0,0 km/h (0 Bft)
23.03.2010 18:26 18,1 C 14,3 C 0,0 UV-I 0,0 C 52 % 69 % 0 % 1018,4 hPa 0,0 l/m 0,4 km/h (0 Bft) 0 min 0,0 km/h (0 Bft)
23.03.2010 18:28 18,0 C 14,3 C 0,0 UV-I 0,0 C 52 % 69 % 0 % 1018,4 hPa 0,0 l/m 0,4 km/h (0 Bft) 0 min 2,6 km/h (1 Bft)
23.03.2010 18:30 18,0 C 14,3 C 0,0 UV-I 0,0 C 52 % 70 % 0 % 1018,4 hPa 0,0 l/m 0,4 km/h (0 Bft) 0 min 0,0 km/h (0 Bft)
23.03.2010 18:32 18,0 C 14,0 C 0,0 UV-I 0,0 C 52 % 70 % 0 % 1018,2 hPa 0,0 l/m 0,0 km/h (0 Bft) 0 min 0,0 km/h (0 Bft)
23.03.2010 18:34 18,0 C 14,0 C 0,0 UV-I 0,0 C 52 % 70 % 0 % 1018,2 hPa 0,0 l/m 0,0 km/h (0 Bft) 0 min 0,0 km/h (0 Bft)
23.03.2010 18:36 18,0 C 14,0 C 0,0 UV-I 0,0 C 52 % 70 % 0 % 1018,2 hPa 0,0 l/m 0,0 km/h (0 Bft) 0 min 0,0 km/h (0 Bft)
23.03.2010 18:38 18,0 C 14,0 C 0,0 UV-I 0,0 C 52 % 71 % 0 % 1018,2 hPa 0,0 l/m 0,0 km/h (0 Bft) 0 min 0,0 km/h (0 Bft)
23.03.2010 18:42 17,9 C 13,8 C 0,0 UV-I 0,0 C 52 % 71 % 0 % 1018,2 hPa 0,0 l/m 0,0 km/h (0 Bft) 0 min 0,0 km/h (0 Bft)
23.03.2010 18:44 17,9 C 13,7 C 0,0 UV-I 0,0 C 52 % 71 % 0 % 1018,2 hPa 0,0 l/m 0,0 km/h (0 Bft) 0 min 0,0 km/h (0 Bft)
23.03.2010 18:46 17,9 C 13,7 C 0,0 UV-I 0,0 C 52 % 71 % 0 % 1018,2 hPa 0,0 l/m 0,0 km/h (0 Bft) 0 min 0,0 km/h (0 Bft)
23.03.2010 18:48 17,9 C 13,6 C 0,0 UV-I 0,0 C 52 % 71 % 0 % 1018,2 hPa 0,0 l/m 0,0 km/h (0 Bft) 0 min 0,0 km/h (0 Bft)
23.03.2010 18:52 17,8 C 13,6 C 0,0 UV-I 0,0 C 52 % 72 % 0 % 1018,1 hPa 0,0 l/m 0,0 km/h (0 Bft) 0 min 0,0 km/h (0 Bft)
23.03.2010 18:54 17,8 C 13,5 C 0,0 UV-I 0,0 C 52 % 72 % 0 % 1018,1 hPa 0,0 l/m 0,0 km/h (0 Bft) 0 min 0,0 km/h (0 Bft)
23.03.2010 18:56 17,8 C 13,5 C 0,0 UV-I 0,0 C 52 % 72 % 0 % 1018,1 hPa 0,0 l/m 0,0 km/h (0 Bft) 0 min 0,0 km/h (0 Bft)
23.03.2010 18:58 17,8 C 13,5 C 0,0 UV-I 0,0 C 52 % 72 % 0 % 1018,1 hPa 0,0 l/m 0,0 km/h (0 Bft) 0 min 0,0 km/h (0 Bft)
23.03.2010 19:00 17,8 C 13,3 C 0,0 UV-I 0,0 C 52 % 73 % 0 % 1018,1 hPa 0,0 l/m 0,0 km/h (0 Bft) 0 min 0,0 km/h (0 Bft)
23.03.2010 19:04 17,8 C 13,3 C 0,0 UV-I 0,0 C 52 % 73 % 0 % 1018,1 hPa 0,0 l/m 0,0 km/h (0 Bft) 0 min 0,0 km/h (0 Bft)
23.03.2010 19:08 17,7 C 13,1 C 0,0 UV-I 0,0 C 52 % 73 % 0 % 1018,1 hPa 0,0 l/m 0,0 km/h (0 Bft) 0 min 0,0 km/h (0 Bft)
23.03.2010 19:10 17,7 C 13,0 C 0,0 UV-I 0,0 C 52 % 74 % 0 % 1018,1 hPa 0,0 l/m 0,0 km/h (0 Bft) 0 min 0,0 km/h (0 Bft)
23.03.2010 19:12 17,7 C 13,1 C 0,0 UV-I 0,0 C 52 % 74 % 0 % 1017,9 hPa 0,0 l/m 0,0 km/h (0 Bft) 0 min 0,0 km/h (0 Bft)
23.03.2010 19:14 17,7 C 12,9 C 0,0 UV-I 0,0 C 53 % 74 % 0 % 1017,9 hPa 0,0 l/m 0,0 km/h (0 Bft) 0 min 0,0 km/h (0 Bft)
23.03.2010 19:16 17,7 C 12,9 C 0,0 UV-I 0,0 C 53 % 74 % 0 % 1017,9 hPa 0,0 l/m 0,0 km/h (0 Bft) 0 min 0,0 km/h (0 Bft)
23.03.2010 19:18 17,7 C 12,8 C 0,0 UV-I 0,0 C 53 % 74 % 0 % 1017,9 hPa 0,0 l/m 0,0 km/h (0 Bft) 0 min 0,0 km/h (0 Bft)
23.03.2010 19:20 17,6 C 12,8 C 0,0 UV-I 0,0 C 53 % 74 % 0 % 1017,9 hPa 0,0 l/m 0,0 km/h (0 Bft) 0 min 0,0 km/h (0 Bft)
23.03.2010 19:22 17,6 C 12,7 C 0,0 UV-I 0,0 C 53 % 74 % 0 % 1017,9 hPa 0,0 l/m 0,0 km/h (0 Bft) 0 min 0,0 km/h (0 Bft)
23.03.2010 19:24 17,6 C 12,7 C 0,0 UV-I 0,0 C 53 % 75 % 0 % 1017,9 hPa 0,0 l/m 0,0 km/h (0 Bft) 0 min 0,0 km/h (0 Bft)
23.03.2010 19:26 17,6 C 12,7 C 0,0 UV-I 0,0 C 53 % 75 % 0 % 1017,9 hPa 0,0 l/m 0,0 km/h (0 Bft) 0 min 0,0 km/h (0 Bft)
23.03.2010 19:28 17,6 C 12,5 C 0,0 UV-I 0,0 C 53 % 75 % 0 % 1017,9 hPa 0,0 l/m 0,0 km/h (0 Bft) 0 min 0,0 km/h (0 Bft)
23.03.2010 19:30 17,6 C 12,4 C 0,0 UV-I 0,0 C 53 % 75 % 0 % 1017,9 hPa 0,0 l/m 0,0 km/h (0 Bft) 0 min 0,0 km/h (0 Bft)
23.03.2010 19:32 17,6 C 12,4 C 0,0 UV-I 0,0 C 53 % 75 % 0 % 1017,9 hPa 0,0 l/m 0,0 km/h (0 Bft) 0 min 0,0 km/h (0 Bft)
23.03.2010 19:34 17,6 C 12,4 C 0,0 UV-I 0,0 C 53 % 75 % 0 % 1017,9 hPa 0,0 l/m 0,0 km/h (0 Bft) 0 min 0,0 km/h (0 Bft)
23.03.2010 19:38 17,6 C 12,3 C 0,0 UV-I 0,0 C 53 % 75 % 0 % 1017,9 hPa 0,0 l/m 0,0 km/h (0 Bft) 0 min 0,0 km/h (0 Bft)
23.03.2010 19:40 17,6 C 12,2 C 0,0 UV-I 0,0 C 53 % 76 % 0 % 1017,9 hPa 0,0 l/m 0,0 km/h (0 Bft) 0 min 0,0 km/h (0 Bft)
23.03.2010 19:44 17,5 C 12,0 C 0,0 UV-I 0,0 C 53 % 76 % 0 % 1017,9 hPa 0,0 l/m 0,0 km/h (0 Bft) 0 min 0,0 km/h (0 Bft)
23.03.2010 19:46 17,5 C 12,0 C 0,0 UV-I 0,0 C 53 % 76 % 0 % 1017,9 hPa 0,0 l/m 0,0 km/h (0 Bft) 0 min 0,0 km/h (0 Bft)
23.03.2010 19:48 17,5 C 11,9 C 0,0 UV-I 0,0 C 53 % 76 % 0 % 1017,9 hPa 0,0 l/m 0,0 km/h (0 Bft) 0 min 0,0 km/h (0 Bft)
23.03.2010 19:50 17,5 C 11,9 C 0,0 UV-I 0,0 C 53 % 76 % 0 % 1017,9 hPa 0,0 l/m 0,0 km/h (0 Bft) 0 min 0,0 km/h (0 Bft)
23.03.2010 19:52 17,5 C 11,9 C 0,0 UV-I 0,0 C 53 % 76 % 0 % 1017,8 hPa 0,0 l/m 0,0 km/h (0 Bft) 0 min 0,0 km/h (0 Bft)
23.03.2010 19:54 17,5 C 11,8 C 0,0 UV-I 0,0 C 53 % 77 % 0 % 1017,8 hPa 0,0 l/m 0,0 km/h (0 Bft) 0 min 0,0 km/h (0 Bft)
23.03.2010 19:56 17,4 C 11,7 C 0,0 UV-I 0,0 C 54 % 77 % 0 % 1017,8 hPa 0,0 l/m 0,0 km/h (0 Bft) 0 min 0,0 km/h (0 Bft)
23.03.2010 19:58 17,4 C 11,6 C 0,0 UV-I 0,0 C 54 % 77 % 0 % 1017,8 hPa 0,0 l/m 0,0 km/h (0 Bft) 0 min 0,0 km/h (0 Bft)
23.03.2010 20:00 17,4 C 11,6 C 0,0 UV-I 0,0 C 54 % 77 % 0 % 1017,8 hPa 0,0 l/m 0,0 km/h (0 Bft) 0 min 0,0 km/h (0 Bft)
23.03.2010 20:02 17,4 C 11,6 C 0,0 UV-I 0,0 C 54 % 77 % 0 % 1017,8 hPa 0,0 l/m 0,0 km/h (0 Bft) 0 min 0,0 km/h (0 Bft)
23.03.2010 20:04 17,2 C 11,5 C 0,0 UV-I 0,0 C 54 % 77 % 0 % 1017,8 hPa 0,0 l/m 0,0 km/h (0 Bft) 0 min 0,0 km/h (0 Bft)
23.03.2010 20:06 17,2 C 11,4 C 0,0 UV-I 0,0 C 54 % 78 % 0 % 1017,8 hPa 0,0 l/m 0,0 km/h (0 Bft) 0 min 0,0 km/h (0 Bft)
23.03.2010 20:08 17,2 C 11,4 C 0,0 UV-I 0,0 C 54 % 78 % 0 % 1017,8 hPa 0,0 l/m 0,0 km/h (0 Bft) 0 min 0,0 km/h (0 Bft)
23.03.2010 20:10 17,2 C 11,3 C 0,0 UV-I 0,0 C 54 % 78 % 0 % 1017,8 hPa 0,0 l/m 0,0 km/h (0 Bft) 0 min 0,0 km/h (0 Bft)
23.03.2010 20:12 17,2 C 11,3 C 0,0 UV-I 0,0 C 54 % 78 % 0 % 1017,6 hPa 0,0 l/m 0,0 km/h (0 Bft) 0 min 0,0 km/h (0 Bft)
23.03.2010 20:14 17,2 C 11,2 C 0,0 UV-I 0,0 C 54 % 78 % 0 % 1017,6 hPa 0,0 l/m 0,0 km/h (0 Bft) 0 min 0,0 km/h (0 Bft)
23.03.2010 20:16 17,2 C 11,2 C 0,0 UV-I 0,0 C 54 % 79 % 0 % 1017,6 hPa 0,0 l/m 0,0 km/h (0 Bft) 0 min 0,0 km/h (0 Bft)
23.03.2010 20:18 17,2 C 11,1 C 0,0 UV-I 0,0 C 54 % 79 % 0 % 1017,6 hPa 0,0 l/m 0,0 km/h (0 Bft) 0 min 0,0 km/h (0 Bft)
23.03.2010 20:22 17,2 C 11,1 C 0,0 UV-I 0,0 C 54 % 79 % 0 % 1017,6 hPa 0,0 l/m 0,0 km/h (0 Bft) 0 min 0,0 km/h (0 Bft)
23.03.2010 20:24 17,2 C 11,1 C 0,0 UV-I 0,0 C 54 % 80 % 0 % 1017,6 hPa 0,0 l/m 0,0 km/h (0 Bft) 0 min 0,0 km/h (0 Bft)
23.03.2010 20:28 17,1 C 10,9 C 0,0 UV-I 0,0 C 55 % 79 % 0 % 1017,6 hPa 0,0 l/m 0,0 km/h (0 Bft) 0 min 0,0 km/h (0 Bft)
23.03.2010 20:30 17,1 C 10,9 C 0,0 UV-I 0,0 C 55 % 79 % 0 % 1017,6 hPa 0,0 l/m 0,0 km/h (0 Bft) 0 min 0,0 km/h (0 Bft)
23.03.2010 20:32 17,1 C 10,9 C 0,0 UV-I 0,0 C 55 % 79 % 0 % 1017,4 hPa 0,0 l/m 0,0 km/h (0 Bft) 0 min 0,0 km/h (0 Bft)
23.03.2010 20:34 17,1 C 10,8 C 0,0 UV-I 0,0 C 55 % 80 % 0 % 1017,4 hPa 0,0 l/m 0,0 km/h (0 Bft) 0 min 0,0 km/h (0 Bft)
23.03.2010 20:36 17,0 C 10,9 C 0,0 UV-I 0,0 C 54 % 80 % 0 % 1017,4 hPa 0,0 l/m 0,0 km/h (0 Bft) 0 min 0,0 km/h (0 Bft)
23.03.2010 20:40 17,0 C 10,7 C 0,0 UV-I 0,0 C 54 % 80 % 0 % 1017,4 hPa 0,0 l/m 0,0 km/h (0 Bft) 0 min 0,0 km/h (0 Bft)
23.03.2010 20:42 17,0 C 10,7 C 0,0 UV-I 0,0 C 54 % 80 % 0 % 1017,4 hPa 0,0 l/m 0,0 km/h (0 Bft) 0 min 0,0 km/h (0 Bft)
23.03.2010 20:44 17,0 C 10,6 C 0,0 UV-I 0,0 C 54 % 81 % 0 % 1017,4 hPa 0,0 l/m 0,0 km/h (0 Bft) 0 min 0,0 km/h (0 Bft)
23.03.2010 20:46 17,0 C 10,7 C 0,0 UV-I 0,0 C 54 % 81 % 0 % 1017,4 hPa 0,0 l/m 0,0 km/h (0 Bft) 0 min 0,0 km/h (0 Bft)
23.03.2010 20:54 17,0 C 10,4 C 0,0 UV-I 0,0 C 55 % 81 % 0 % 1017,3 hPa 0,0 l/m 0,0 km/h (0 Bft) 0 min 0,0 km/h (0 Bft)
23.03.2010 20:58 16,9 C 10,3 C 0,0 UV-I 0,0 C 55 % 81 % 0 % 1017,3 hPa 0,0 l/m 0,0 km/h (0 Bft) 0 min 0,0 km/h (0 Bft)
23.03.2010 21:00 16,9 C 10,3 C 0,0 UV-I 0,0 C 55 % 81 % 0 % 1017,3 hPa 0,0 l/m 0,0 km/h (0 Bft) 0 min 0,0 km/h (0 Bft)
23.03.2010 21:04 16,9 C 10,3 C 0,0 UV-I 0,0 C 55 % 82 % 0 % 1017,3 hPa 0,0 l/m 0,0 km/h (0 Bft) 0 min 0,0 km/h (0 Bft)
23.03.2010 21:06 16,9 C 10,2 C 0,0 UV-I 0,0 C 55 % 82 % 0 % 1017,3 hPa 0,0 l/m 0,0 km/h (0 Bft) 0 min 0,0 km/h (0 Bft)
23.03.2010 21:08 16,9 C 10,1 C 0,0 UV-I 0,0 C 55 % 82 % 0 % 1017,3 hPa 0,0 l/m 0,0 km/h (0 Bft) 0 min 0,0 km/h (0 Bft)
23.03.2010 21:10 16,9 C 10,1 C 0,0 UV-I 0,0 C 55 % 82 % 0 % 1017,3 hPa 0,0 l/m 0,0 km/h (0 Bft) 0 min 0,0 km/h (0 Bft)
23.03.2010 21:14 16,9 C 10,1 C 0,0 UV-I 0,0 C 55 % 82 % 0 % 1017,3 hPa 0,0 l/m 0,0 km/h (0 Bft) 0 min 0,0 km/h (0 Bft)
23.03.2010 21:18 16,8 C 9,9 C 0,0 UV-I 0,0 C 55 % 82 % 0 % 1017,3 hPa 0,0 l/m 0,0 km/h (0 Bft) 0 min 0,0 km/h (0 Bft)
23.03.2010 21:24 16,8 C 9,9 C 0,0 UV-I 0,0 C 55 % 83 % 0 % 1017,3 hPa 0,0 l/m 0,0 km/h (0 Bft) 0 min 0,0 km/h (0 Bft)
23.03.2010 21:26 16,8 C 9,9 C 0,0 UV-I 0,0 C 55 % 83 % 0 % 1017,3 hPa 0,0 l/m 0,0 km/h (0 Bft) 0 min 0,0 km/h (0 Bft)
23.03.2010 21:28 16,8 C 9,7 C 0,0 UV-I 0,0 C 55 % 83 % 0 % 1017,3 hPa 0,0 l/m 0,0 km/h (0 Bft) 0 min 0,0 km/h (0 Bft)
23.03.2010 21:30 16,8 C 9,7 C 0,0 UV-I 0,0 C 55 % 83 % 0 % 1017,3 hPa 0,0 l/m 0,0 km/h (0 Bft) 0 min 0,0 km/h (0 Bft)
23.03.2010 21:32 16,8 C 9,6 C 0,0 UV-I 0,0 C 55 % 83 % 0 % 1016,9 hPa 0,0 l/m 0,0 km/h (0 Bft) 0 min 0,0 km/h (0 Bft)
23.03.2010 21:34 16,8 C 9,6 C 0,0 UV-I 0,0 C 55 % 83 % 0 % 1016,9 hPa 0,0 l/m 0,0 km/h (0 Bft) 0 min 0,0 km/h (0 Bft)
23.03.2010 21:36 16,8 C 9,7 C 0,0 UV-I 0,0 C 55 % 83 % 0 % 1016,9 hPa 0,0 l/m 0,0 km/h (0 Bft) 0 min 0,0 km/h (0 Bft)
23.03.2010 21:38 16,8 C 9,6 C 0,0 UV-I 0,0 C 55 % 83 % 0 % 1016,9 hPa 0,0 l/m 0,0 km/h (0 Bft) 0 min 0,0 km/h (0 Bft)
23.03.2010 21:40 16,8 C 9,6 C 0,0 UV-I 0,0 C 55 % 83 % 0 % 1016,9 hPa 0,0 l/m 0,0 km/h (0 Bft) 0 min 0,0 km/h (0 Bft)
23.03.2010 21:42 16,8 C 9,6 C 0,0 UV-I 0,0 C 55 % 83 % 0 % 1016,9 hPa 0,0 l/m 0,4 km/h (0 Bft) 0 min 0,0 km/h (0 Bft)
23.03.2010 21:44 16,8 C 9,5 C 0,0 UV-I 0,0 C 55 % 83 % 0 % 1016,9 hPa 0,0 l/m 0,4 km/h (0 Bft) 0 min 0,0 km/h (0 Bft)
23.03.2010 21:46 16,8 C 9,5 C 0,0 UV-I 0,0 C 55 % 83 % 0 % 1016,9 hPa 0,0 l/m 0,4 km/h (0 Bft) 0 min 0,0 km/h (0 Bft)
23.03.2010 21:48 16,8 C 9,6 C 0,0 UV-I 0,0 C 55 % 83 % 0 % 1016,9 hPa 0,0 l/m 0,4 km/h (0 Bft) 0 min 0,0 km/h (0 Bft)
23.03.2010 21:50 16,8 C 9,6 C 0,0 UV-I 0,0 C 55 % 83 % 0 % 1016,9 hPa 0,0 l/m 0,4 km/h (0 Bft) 0 min 0,0 km/h (0 Bft)
23.03.2010 21:52 16,8 C 9,5 C 0,0 UV-I 0,0 C 55 % 83 % 0 % 1017,0 hPa 0,0 l/m 0,0 km/h (0 Bft) 0 min 0,0 km/h (0 Bft)
23.03.2010 21:54 16,8 C 9,6 C 0,0 UV-I 0,0 C 55 % 83 % 0 % 1017,0 hPa 0,0 l/m 0,0 km/h (0 Bft) 0 min 0,0 km/h (0 Bft)
23.03.2010 21:56 16,8 C 9,6 C 0,0 UV-I 0,0 C 55 % 83 % 0 % 1017,0 hPa 0,0 l/m 0,0 km/h (0 Bft) 0 min 3,4 km/h (1 Bft)
23.03.2010 21:58 16,8 C 9,6 C 0,0 UV-I 0,0 C 55 % 83 % 0 % 1017,0 hPa 0,0 l/m 0,4 km/h (0 Bft) 0 min 2,6 km/h (1 Bft)
23.03.2010 22:00 16,8 C 9,6 C 0,0 UV-I 0,0 C 55 % 83 % 0 % 1017,0 hPa 0,0 l/m 0,4 km/h (0 Bft) 0 min 0,0 km/h (0 Bft)
23.03.2010 22:02 16,8 C 9,6 C 0,0 UV-I 0,0 C 55 % 83 % 0 % 1017,0 hPa 0,0 l/m 0,4 km/h (0 Bft) 0 min 0,0 km/h (0 Bft)
23.03.2010 22:04 16,8 C 9,6 C 0,0 UV-I 0,0 C 55 % 83 % 0 % 1017,0 hPa 0,0 l/m 0,4 km/h (0 Bft) 0 min 0,0 km/h (0 Bft)
23.03.2010 22:06 16,8 C 9,6 C 0,0 UV-I 0,0 C 55 % 83 % 0 % 1017,0 hPa 0,0 l/m 0,4 km/h (0 Bft) 0 min 0,0 km/h (0 Bft)
23.03.2010 22:08 16,8 C 9,6 C 0,0 UV-I 0,0 C 55 % 83 % 0 % 1017,0 hPa 0,0 l/m 0,4 km/h (0 Bft) 0 min 0,0 km/h (0 Bft)
23.03.2010 22:10 16,8 C 9,6 C 0,0 UV-I 0,0 C 55 % 83 % 0 % 1017,0 hPa 0,0 l/m 0,4 km/h (0 Bft) 0 min 0,0 km/h (0 Bft)
23.03.2010 22:12 16,7 C 9,6 C 0,0 UV-I 0,0 C 55 % 83 % 0 % 1016,5 hPa 0,0 l/m 0,0 km/h (0 Bft) 0 min 0,0 km/h (0 Bft)
23.03.2010 22:14 16,8 C 9,6 C 0,0 UV-I 0,0 C 55 % 83 % 0 % 1016,5 hPa 0,0 l/m 0,4 km/h (0 Bft) 0 min 0,0 km/h (0 Bft)
23.03.2010 22:16 16,8 C 9,6 C 0,0 UV-I 0,0 C 55 % 83 % 0 % 1016,5 hPa 0,0 l/m 0,4 km/h (0 Bft) 0 min 0,0 km/h (0 Bft)
23.03.2010 22:18 16,8 C 9,6 C 0,0 UV-I 0,0 C 55 % 83 % 0 % 1016,5 hPa 0,0 l/m 0,4 km/h (0 Bft) 0 min 0,0 km/h (0 Bft)
23.03.2010 22:20 16,8 C 9,6 C 0,0 UV-I 0,0 C 55 % 83 % 0 % 1016,5 hPa 0,0 l/m 0,4 km/h (0 Bft) 0 min 0,0 km/h (0 Bft)
23.03.2010 22:22 16,8 C 9,6 C 0,0 UV-I 0,0 C 55 % 83 % 0 % 1016,5 hPa 0,0 l/m 0,4 km/h (0 Bft) 0 min 0,0 km/h (0 Bft)
23.03.2010 22:24 16,7 C 9,6 C 0,0 UV-I 0,0 C 55 % 83 % 0 % 1016,5 hPa 0,0 l/m 0,0 km/h (0 Bft) 0 min 0,0 km/h (0 Bft)
23.03.2010 22:26 16,7 C 9,6 C 0,0 UV-I 0,0 C 55 % 83 % 0 % 1016,5 hPa 0,0 l/m 0,0 km/h (0 Bft) 0 min 0,0 km/h (0 Bft)
23.03.2010 22:28 16,8 C 9,6 C 0,0 UV-I 0,0 C 55 % 83 % 0 % 1016,5 hPa 0,0 l/m 0,0 km/h (0 Bft) 0 min 2,4 km/h (1 Bft)
23.03.2010 22:30 16,8 C 9,6 C 0,0 UV-I 0,0 C 55 % 83 % 0 % 1016,5 hPa 0,0 l/m 0,4 km/h (0 Bft) 0 min 0,0 km/h (0 Bft)
23.03.2010 22:32 16,8 C 9,6 C 0,0 UV-I 0,0 C 55 % 83 % 0 % 1016,4 hPa 0,0 l/m 0,4 km/h (0 Bft) 0 min 0,0 km/h (0 Bft)
23.03.2010 22:34 16,7 C 9,7 C 0,0 UV-I 0,0 C 55 % 83 % 0 % 1016,4 hPa 0,0 l/m 0,8 km/h (0 Bft) 0 min 3,8 km/h (1 Bft)
23.03.2010 22:36 16,7 C 9,6 C 0,0 UV-I 0,0 C 55 % 83 % 0 % 1016,4 hPa 0,0 l/m 0,8 km/h (0 Bft) 0 min 0,0 km/h (0 Bft)
23.03.2010 22:38 16,8 C 9,6 C 0,0 UV-I 0,0 C 55 % 83 % 0 % 1016,4 hPa 0,0 l/m 0,8 km/h (0 Bft) 0 min 0,0 km/h (0 Bft)
23.03.2010 22:40 16,7 C 9,6 C 0,0 UV-I 0,0 C 55 % 83 % 0 % 1016,4 hPa 0,0 l/m 0,8 km/h (0 Bft) 0 min 0,0 km/h (0 Bft)
23.03.2010 22:42 16,8 C 9,6 C 0,0 UV-I 0,0 C 55 % 83 % 0 % 1016,4 hPa 0,0 l/m 1,2 km/h (1 Bft) 0 min 6,3 km/h (2 Bft)
23.03.2010 22:44 16,7 C 9,6 C 0,0 UV-I 0,0 C 55 % 83 % 0 % 1016,4 hPa 0,0 l/m 2,0 km/h (1 Bft) 0 min 5,1 km/h (1 Bft)
23.03.2010 22:46 16,7 C 9,6 C 0,0 UV-I 0,0 C 55 % 83 % 0 % 1016,4 hPa 0,0 l/m 2,8 km/h (1 Bft) 0 min 4,8 km/h (1 Bft)
23.03.2010 22:48 16,7 C 9,7 C 0,0 UV-I 0,0 C 55 % 83 % 0 % 1016,4 hPa 0,0 l/m 4,0 km/h (1 Bft) 0 min 6,0 km/h (2 Bft)
23.03.2010 22:50 16,7 C 9,7 C 0,0 UV-I 0,0 C 55 % 83 % 0 % 1016,4 hPa 0,0 l/m 4,8 km/h (1 Bft) 0 min 5,3 km/h (1 Bft)
23.03.2010 22:52 16,7 C 9,7 C 0,0 UV-I 0,0 C 55 % 83 % 0 % 1016,6 hPa 0,0 l/m 5,6 km/h (1 Bft) 0 min 0,0 km/h (0 Bft)
23.03.2010 22:54 16,7 C 9,6 C 0,0 UV-I 0,0 C 55 % 83 % 0 % 1016,6 hPa 0,0 l/m 5,2 km/h (1 Bft) 0 min 2,4 km/h (1 Bft)
23.03.2010 22:56 16,7 C 9,6 C 0,0 UV-I 0,0 C 55 % 83 % 0 % 1016,6 hPa 0,0 l/m 5,2 km/h (1 Bft) 0 min 2,6 km/h (1 Bft)
23.03.2010 22:58 16,7 C 9,6 C 0,0 UV-I 0,0 C 55 % 83 % 0 % 1016,6 hPa 0,0 l/m 4,8 km/h (1 Bft) 0 min 3,6 km/h (1 Bft)
23.03.2010 23:00 16,7 C 9,6 C 0,0 UV-I 0,0 C 55 % 83 % 0 % 1016,6 hPa 0,0 l/m 4,0 km/h (1 Bft) 0 min 7,9 km/h (2 Bft)
23.03.2010 23:02 16,7 C 9,6 C 0,0 UV-I 0,0 C 55 % 83 % 0 % 1016,6 hPa 0,0 l/m 3,2 km/h (1 Bft) 0 min 4,3 km/h (1 Bft)
23.03.2010 23:04 16,7 C 9,5 C 0,0 UV-I 0,0 C 55 % 83 % 0 % 1016,6 hPa 0,0 l/m 4,0 km/h (1 Bft) 0 min 2,4 km/h (1 Bft)
23.03.2010 23:06 16,7 C 9,6 C 0,0 UV-I 0,0 C 55 % 83 % 0 % 1016,6 hPa 0,0 l/m 3,6 km/h (1 Bft) 0 min 2,6 km/h (1 Bft)
23.03.2010 23:08 16,7 C 9,6 C 0,0 UV-I 0,0 C 55 % 83 % 0 % 1016,6 hPa 0,0 l/m 3,6 km/h (1 Bft) 0 min 2,9 km/h (1 Bft)
23.03.2010 23:10 16,7 C 9,6 C 0,0 UV-I 0,0 C 55 % 83 % 0 % 1016,6 hPa 0,0 l/m 3,6 km/h (1 Bft) 0 min 3,1 km/h (1 Bft)
23.03.2010 23:12 16,7 C 9,6 C 0,0 UV-I 0,0 C 55 % 83 % 0 % 1015,9 hPa 0,0 l/m 3,6 km/h (1 Bft) 0 min 3,6 km/h (1 Bft)
23.03.2010 23:14 16,7 C 9,6 C 0,0 UV-I 0,0 C 55 % 83 % 0 % 1015,9 hPa 0,0 l/m 3,2 km/h (1 Bft) 0 min 5,3 km/h (1 Bft)
23.03.2010 23:16 16,7 C 9,6 C 0,0 UV-I 0,0 C 55 % 83 % 0 % 1015,9 hPa 0,0 l/m 3,2 km/h (1 Bft) 0 min 2,9 km/h (1 Bft)
23.03.2010 23:18 16,7 C 9,6 C 0,0 UV-I 0,0 C 55 % 83 % 0 % 1015,9 hPa 0,0 l/m 3,2 km/h (1 Bft) 0 min 3,1 km/h (1 Bft)
23.03.2010 23:20 16,7 C 9,6 C 0,0 UV-I 0,0 C 55 % 83 % 0 % 1015,9 hPa 0,0 l/m 3,6 km/h (1 Bft) 0 min 4,8 km/h (1 Bft)
23.03.2010 23:22 16,7 C 9,6 C 0,0 UV-I 0,0 C 55 % 83 % 0 % 1015,9 hPa 0,0 l/m 3,6 km/h (1 Bft) 0 min 3,1 km/h (1 Bft)
23.03.2010 23:24 16,7 C 9,6 C 0,0 UV-I 0,0 C 55 % 83 % 0 % 1015,9 hPa 0,0 l/m 3,6 km/h (1 Bft) 0 min 6,5 km/h (2 Bft)
23.03.2010 23:28 16,7 C 9,6 C 0,0 UV-I 0,0 C 55 % 83 % 0 % 1015,9 hPa 0,0 l/m 4,8 km/h (1 Bft) 0 min 4,1 km/h (1 Bft)
23.03.2010 23:30 16,7 C 9,6 C 0,0 UV-I 0,0 C 55 % 83 % 0 % 1015,9 hPa 0,0 l/m 4,4 km/h (1 Bft) 0 min 0,0 km/h (0 Bft)
23.03.2010 23:32 16,6 C 9,6 C 0,0 UV-I 0,0 C 55 % 83 % 0 % 1015,7 hPa 0,0 l/m 4,0 km/h (1 Bft) 0 min 3,8 km/h (1 Bft)
23.03.2010 23:34 16,6 C 9,6 C 0,0 UV-I 0,0 C 55 % 83 % 0 % 1015,7 hPa 0,0 l/m 4,0 km/h (1 Bft) 0 min 2,6 km/h (1 Bft)
23.03.2010 23:36 16,7 C 9,6 C 0,0 UV-I 0,0 C 55 % 83 % 0 % 1015,7 hPa 0,0 l/m 2,8 km/h (1 Bft) 0 min 3,8 km/h (1 Bft)
23.03.2010 23:38 16,7 C 9,6 C 0,0 UV-I 0,0 C 55 % 83 % 0 % 1015,7 hPa 0,0 l/m 2,4 km/h (1 Bft) 0 min 2,4 km/h (1 Bft)
23.03.2010 23:40 16,6 C 9,5 C 0,0 UV-I 0,0 C 55 % 83 % 0 % 1015,7 hPa 0,0 l/m 2,4 km/h (1 Bft) 0 min 0,0 km/h (0 Bft)
23.03.2010 23:42 16,7 C 9,5 C 0,0 UV-I 0,0 C 55 % 83 % 0 % 1015,7 hPa 0,0 l/m 2,4 km/h (1 Bft) 0 min 4,1 km/h (1 Bft)
23.03.2010 23:44 16,6 C 9,6 C 0,0 UV-I 0,0 C 55 % 83 % 0 % 1015,7 hPa 0,0 l/m 2,0 km/h (1 Bft) 0 min 3,1 km/h (1 Bft)
23.03.2010 23:46 16,6 C 9,5 C 0,0 UV-I 0,0 C 55 % 83 % 0 % 1015,7 hPa 0,0 l/m 2,0 km/h (1 Bft) 0 min 4,8 km/h (1 Bft)
23.03.2010 23:48 16,6 C 9,5 C 0,0 UV-I 0,0 C 55 % 83 % 0 % 1015,7 hPa 0,0 l/m 1,6 km/h (1 Bft) 0 min 2,9 km/h (1 Bft)
23.03.2010 23:50 16,6 C 9,5 C 0,0 UV-I 0,0 C 55 % 83 % 0 % 1015,7 hPa 0,0 l/m 1,2 km/h (1 Bft) 0 min 0,0 km/h (0 Bft)
23.03.2010 23:52 16,6 C 9,5 C 0,0 UV-I 0,0 C 55 % 83 % 0 % 1015,5 hPa 0,0 l/m 1,2 km/h (1 Bft) 0 min 3,4 km/h (1 Bft)
23.03.2010 23:54 16,6 C 9,4 C 0,0 UV-I 0,0 C 55 % 83 % 0 % 1015,5 hPa 0,0 l/m 1,2 km/h (1 Bft) 0 min 0,0 km/h (0 Bft)
23.03.2010 23:56 16,6 C 9,4 C 0,0 UV-I 0,0 C 55 % 83 % 0 % 1015,5 hPa 0,0 l/m 1,2 km/h (1 Bft) 0 min 4,8 km/h (1 Bft)
23.03.2010 23:58 16,6 C 9,5 C 0,0 UV-I 0,0 C 55 % 83 % 0 % 1015,5 hPa 0,0 l/m 0,8 km/h (0 Bft) 0 min 0,0 km/h (0 Bft)
_ Min-Zeit 02:48 02:22 00:00 00:00 15:10 15:12 00:00 23:52 - 00:02 - 00:00
Minimum _ 15,6 C 7,2 C 0,0 UV-I 0,0 C 50 % 63 % 0 % 1015,5 hPa - 0,0 km/h (0 Bft) - 0,0 km/h (0 Bft)
_ Max-Zeit 15:02 15:02 14:50 15:00 07:26 08:12 12:56 15:12 00:00 13:20 12:02 13:12
Maximum _ 18,9 C 16,1 C 10,3 UV-I 7,4 C 57 % 90 % 100 % 1022,4 hPa 0,0 l/m 8,8 km/h
O-NO (2 Bft)
2 min 14,2 km/h
NO (3 Bft)
Durchschnitt _ 16,7 C 10,8 C 0,8 UV-I 0,8 C 54 % 79 % 20 % 1019,5 hPa #0,0 l/m 1,6 km/h (1 Bft) #1:36 h 1,7 km/h (1 Bft)
© 2012 W. Hausmann